GEFSMA_con_cape1000_144.txt.gz
Probability
48 32 19 26 32 35 35 35 29 29 35 29 23 19 23 16 19 19 19 39 68 74 65 68 71 68 68 65 61 65 71 71 68 61 65 68 61 58 52 48 45 45 29
23 23 23 19 19 26 19 19 19 23 16 16 16 19 19 23 19 16 16 19 52 65 65 65 68 61 61 61 61 65 65 68 65 68 68 52 55 52 48 39 39 39 32
16 16 13 16 16 13 13 10 10 13 13 16 10 13 16 13 10 10 6 16 26 35 58 68 55 58 55 58 61 65 68 61 55 55 52 48 32 42 32 29 29 26 23
13 16 16 16 13 6 10 10 6 6 10 10 10 10 10 3 3 3 3 0 3 10 32 45 58 61 58 52 55 55 52 58 45 42 39 35 32 35 29 26 19 13 10
16 10 13 23 19 16 13 10 3 6 6 6 6 3 0 3 3 3 3 0 3 3 10 19 26 39 39 39 39 35 39 39 39 42 35 29 23 23 23 19 16 13 6
19 13 13 16 19 19 13 0 0 0 0 0 0 0 0 0 0 3 3 0 3 3 6 6 13 19 26 26 29 26 23 35 32 26 23 23 23 23 19 16 16 13 10
6 3 10 6 10 10 10 6 0 0 0 0 0 0 0 0 0 0 0 0 0 3 0 0 6 3 13 16 16 26 26 26 26 16 13 19 19 13 13 13 16 16 10
3 6 6 6 6 10 3 3 3 6 0 0 0 0 0 0 0 0 0 0 0 0 3 0 0 3 6 6 3 16 26 23 23 16 13 13 6 10 3 10 6 10 3
3 6 6 6 6 6 6 0 0 0 3 0 0 0 0 0 0 0 0 0 0 0 0 3 0 0 3 6 6 6 13 3 19 16 13 6 0 3 6 6 6 3 6
3 3 3 3 0 0 0 0 0 0 0 0 0 0 0 0 0 0 0 0 0 0 0 0 0 0 0 3 6 0 0 0 3 10 10 3 3 0 0 0 0 6 10
3 3 3 0 0 0 0 0 0 0 0 0 0 0 0 0 0 0 0 0 0 0 0 0 0 0 0 0 0 0 0 0 0 0 0 3 3 0 0 0 0 6 6
0 3 0 0 0 0 0 0 0 0 0 0 0 0 0 0 0 0 0 0 0 0 0 0 0 0 0 0 0 0 0 0 0 0 0 0 0 0 0 0 0 3 3
0 3 0 0 0 0 0 0 0 0 0 0 0 0 0 0 0 0 0 0 0 0 0 0 0 0 0 0 0 0 0 0 0 0 0 0 0 0 0 0 0 0 0
3 0 0 0 0 0 0 0 0 0 0 0 0 0 0 0 0 0 0 0 0 0 0 0 0 0 0 0 0 0 0 0 0 0 0 0 0 0 0 0 0 0 0
0 0 0 0 0 0 0 0 0 0 0 0 0 0 0 0 0 0 0 0 0 0 0 0 0 0 0 0 0 0 0 0 0 0 0 0 0 0 0 0 0 0 0
0 0 0 0 0 0 0 0 0 0 0 0 0 0 0 0 0 0 0 0 0 0 0 0 0 0 0 0 0 0 0 0 0 0 0 0 0 0 0 0 0 0 0
0 0 0 0 0 0 0 0 0 0 0 0 0 0 0 0 0 0 0 0 0 0 0 0 0 0 0 0 0 0 0 0 0 0 0 0 0 0 0 0 0 0 0
0 0 0 0 0 0 0 0 0 0 0 0 0 0 0 0 0 0 0 0 0 0 0 0 0 0 0 0 0 0 0 0 0 0 0 0 0 0 0 0 0 0 0
0 0 0 0 0 0 0 0 0 0 0 0 0 0 0 0 0 0 0 0 0 0 0 0 0 0 0 0 0 0 0 0 0 0 0 0 0 0 0 0 0 0 0
0 0 0 0 0 0 0 0 0 0 0 0 0 0 0 0 0 0 0 0 0 0 0 0 0 0 0 0 0 0 0 0 0 0 0 0 0 0 0 0 0 0 0
0 0 0 0 0 0 0 0 0 0 0 0 0 0 0 0 0 0 0 0 0 0 0 0 0 0 0 0 0 0 0 0 0 0 0 0 0 0 0 0 0 0 0
0 0 0 0 0 0 0 0 0 0 0 0 0 0 0 0 0 0 0 0 0 0 0 0 0 0 0 0 0 0 0 0 0 0 0 0 0 0 0 0 0 0 0
0 0 0 0 0 0 0 0 0 0 0 0 0 0 0 0 0 0 0 0 0 0 0 0 0 0 0 0 0 0 0 0 0 0 0 0 0 0 0 0 0 0 0
0 0 0 0 0 0 0 0 0 0 0 0 0 0 0 0 0 0 0 0 0 0 0 0 0 0 0 0 0 0 0 0 0 0 0 0 0 0 0 0 0 0 0
0 0 0 0 0 0 0 0 0 0 0 0 0 0 0 0 0 0 0 0 0 0 0 0 0 0 0 0 0 0 0 0 0 0 0 0 0 0 0 0 0 0 0
0 0 0 0 0 0 0 0 0 0 0 0 0 0 0 0 0 0 0 0 0 0 0 0 0 0 0 0 0 0 0 0 0 0 0 0 0 0 0 0 0 0 0

GEFSMA_con_cape1000_150.txt.gz
Probability
71 74 71 71 68 65 74 68 58 58 65 55 55 35 45 48 48 58 68 68 65 65 68 61 55 61 55 52 52 55 55 52 65 58 61 74 74 58 55 55 55 52 45
71 68 68 68 71 71 68 68 65 68 71 61 55 48 48 35 45 45 52 55 58 58 61 61 58 52 42 39 48 52 48 45 58 58 61 55 58 52 52 48 45 45 39
61 61 68 71 65 68 65 65 58 65 65 61 65 58 58 45 42 45 48 48 52 52 58 65 61 55 42 32 39 39 45 45 39 42 48 45 52 45 48 39 42 35 32
65 68 61 61 61 61 58 58 55 58 65 65 68 68 58 58 55 52 45 42 52 39 42 48 45 48 42 35 32 29 35 29 35 35 35 39 32 32 29 35 35 32 32
55 48 52 55 48 45 42 35 45 52 52 58 55 61 55 58 55 35 26 39 45 48 52 29 35 39 42 32 29 26 29 29 26 29 32 35 32 29 16 19 19 16 26
45 45 42 48 42 42 35 35 39 39 39 42 23 23 42 45 48 48 45 35 45 32 32 29 39 39 32 35 32 26 23 23 23 23 26 29 35 19 10 10 19 13 13
39 45 32 42 35 32 35 35 39 35 35 35 32 29 26 32 35 42 39 32 26 32 32 29 42 45 32 26 23 23 16 19 19 16 19 19 23 13 10 6 6 6 6
39 35 39 35 29 32 35 32 32 29 32 32 23 19 13 16 39 6 19 23 26 23 23 10 23 29 26 23 10 16 16 19 23 23 19 19 13 10 6 3 3 3 3
35 35 35 29 29 35 32 32 32 29 29 29 23 23 10 6 19 19 13 16 23 23 23 16 13 13 13 19 6 6 10 10 16 16 13 16 10 6 6 3 3 3 3
29 26 26 26 32 32 35 32 19 26 29 26 23 23 23 16 10 16 19 10 13 16 13 10 3 6 13 23 13 3 3 0 10 10 13 6 3 3 3 3 3 0 0
26 23 29 23 32 32 29 32 26 16 16 19 13 10 10 13 16 10 3 6 10 13 13 6 6 3 13 19 13 6 0 0 0 0 3 3 6 6 6 3 3 0 0
29 19 19 19 26 23 26 23 16 19 13 6 3 10 6 13 3 10 6 10 10 6 6 6 6 10 13 10 6 0 0 0 0 0 3 3 3 3 3 3 3 0 3
26 26 6 13 10 19 16 16 10 10 10 6 10 10 10 13 10 10 10 13 6 3 0 6 13 10 3 3 10 0 0 0 0 0 0 0 3 3 3 3 0 0 0
16 16 10 6 6 6 6 6 10 6 6 6 6 6 10 6 6 6 13 16 10 3 3 0 6 3 3 3 3 0 0 0 0 0 0 0 0 0 3 0 0 0 0
16 10 6 6 6 6 10 13 6 6 6 6 3 6 6 6 3 6 6 10 13 6 0 0 3 3 3 3 0 6 0 0 0 0 0 0 0 0 0 0 0 0 0
13 10 6 6 6 3 3 6 6 6 10 10 3 3 0 3 3 6 6 10 10 10 10 6 0 3 3 3 3 3 0 0 0 0 0 0 0 0 0 0 0 0 0
10 3 3 3 3 3 3 3 3 6 3 6 3 3 3 0 0 6 10 10 13 13 6 3 3 3 0 3 3 3 0 0 0 0 0 0 0 0 0 0 0 0 0
3 3 3 3 3 3 3 3 3 3 3 0 0 3 0 0 0 0 0 3 3 6 3 0 0 0 0 3 3 0 0 0 0 0 0 0 0 0 0 0 0 0 0
3 3 3 3 3 3 3 3 3 3 3 0 0 3 0 0 0 0 0 0 0 0 3 0 0 0 0 0 0 0 0 0 0 0 0 0 0 0 0 0 0 0 0
0 0 3 3 3 3 3 3 3 0 0 0 0 0 0 0 0 0 0 0 0 0 0 0 0 0 0 0 0 3 0 0 0 0 0 0 0 0 0 0 0 0 0
0 0 3 3 3 3 3 0 0 0 0 0 0 0 0 0 0 0 0 0 0 0 0 0 0 0 0 0 0 0 0 0 0 0 0 0 0 0 0 0 0 0 0
0 3 3 3 0 0 0 0 0 0 0 0 0 0 0 0 0 0 0 0 0 0 0 0 0 0 0 0 0 0 0 0 0 0 0 0 0 0 0 0 0 0 0
3 3 0 0 0 0 0 0 0 0 0 0 0 0 0 0 0 0 0 0 0 0 0 0 0 0 0 0 0 0 0 0 0 0 0 0 0 0 0 0 0 0 0
3 0 0 0 0 0 0 0 0 0 0 0 0 0 0 3 0 0 0 0 0 0 0 0 0 0 0 0 0 3 3 3 0 0 0 0 0 0 0 0 0 0 0
0 0 0 0 0 0 0 0 0 0 0 0 0 0 0 0 0 0 0 0 0 0 0 0 0 0 0 0 0 0 0 0 0 0 0 0 0 0 0 0 0 0 0
0 0 0 0 0 0 0 0 0 0 0 0 0 0 0 0 0 0 0 0 0 0 0 0 0 0 0 0 0 0 0 0 0 0 0 0 0 0 0 0 0 0 0

GEFSMA_con_cape1000_156.txt.gz
Probability
81 74 74 81 74 74 74 74 68 71 68 55 58 45 52 55 48 45 55 68 71 61 61 55 65 58 55 48 48 48 45 45 48 52 58 61 58 61 55 55 61 55 58
81 74 77 74 74 74 74 74 71 61 61 65 65 65 58 52 55 48 48 61 68 61 61 68 68 65 55 45 48 48 48 45 42 48 45 45 45 48 55 48 55 52 42
74 77 77 71 71 74 74 74 71 71 55 52 61 58 58 68 55 52 52 48 52 58 68 71 71 65 58 52 45 45 52 48 39 39 39 39 39 42 48 42 39 45 29
58 68 68 71 71 71 68 74 71 61 52 48 52 48 58 58 55 55 48 55 55 52 58 68 71 65 61 55 52 42 35 35 39 32 32 32 39 39 42 35 35 35 26
55 58 65 61 61 55 58 45 58 48 45 45 45 45 48 52 55 52 55 52 55 58 52 52 55 61 61 55 52 52 35 32 35 35 32 29 29 29 26 23 23 16 10
45 52 52 58 48 52 52 52 52 48 45 48 35 29 39 42 48 48 48 52 58 55 42 32 39 42 52 52 48 48 39 35 35 32 26 26 23 26 23 19 23 13 13
45 45 45 52 48 55 55 45 39 39 35 42 32 29 32 26 35 42 52 52 45 48 29 29 35 29 19 35 42 48 42 35 29 29 23 26 23 19 16 16 10 13 6
45 39 48 48 45 52 45 48 42 39 32 32 32 29 16 26 35 29 42 42 32 35 35 19 19 19 16 19 19 23 32 32 29 23 26 19 19 19 13 10 10 10 6
45 45 48 48 45 42 45 45 39 35 32 32 32 29 23 13 19 26 26 32 35 35 29 26 19 16 16 19 16 16 19 16 16 19 16 19 13 6 10 6 6 6 3
39 39 39 39 45 39 39 35 35 39 32 23 32 29 26 13 10 10 16 19 26 29 19 10 10 10 16 13 16 13 13 10 10 10 6 10 6 6 6 10 6 6 3
32 26 29 26 35 35 35 35 35 35 32 29 29 26 26 23 13 0 0 10 13 23 23 13 10 10 13 13 16 6 3 3 3 6 6 6 3 6 10 6 6 6 3
29 29 26 29 29 26 32 35 35 32 32 29 29 26 23 16 13 6 0 3 6 10 19 13 13 10 6 10 6 3 0 0 0 3 3 0 3 3 10 6 6 6 3
32 29 26 29 26 23 29 32 32 26 29 26 19 19 16 13 13 10 0 0 6 6 6 13 6 10 6 10 3 0 0 0 0 0 0 0 3 3 3 3 3 3 0
32 32 26 23 23 16 16 19 29 16 23 19 3 10 13 10 13 13 6 0 0 3 3 0 10 6 6 10 3 0 0 0 0 0 0 3 3 3 0 0 0 0 0
29 26 26 26 16 13 13 10 10 10 13 10 3 6 10 13 6 10 13 6 0 0 0 3 0 10 6 6 3 0 3 0 0 0 0 0 0 0 0 0 0 0 0
29 26 23 23 13 6 6 10 10 10 13 10 10 3 3 3 0 6 10 0 0 0 0 0 0 3 6 3 0 3 3 0 0 0 0 0 0 0 0 0 0 0 0
26 23 13 6 6 3 3 3 3 6 3 3 3 3 3 3 0 3 6 3 0 0 0 0 0 0 3 0 0 3 0 0 0 0 0 0 0 0 0 0 0 0 0
19 13 3 6 3 3 3 3 3 3 3 3 3 3 3 0 0 0 0 0 0 0 0 0 0 0 0 3 3 0 0 0 0 0 0 0 0 0 0 0 0 0 0
10 3 3 3 3 3 3 3 3 3 3 3 3 3 0 0 0 0 0 0 0 0 0 3 0 0 0 0 0 0 0 0 0 0 0 0 0 0 0 0 0 0 0
3 3 3 3 3 3 3 3 3 3 3 3 3 0 0 0 0 0 0 0 0 0 0 0 0 0 0 0 0 0 0 0 0 0 0 0 0 0 0 0 0 0 0
3 3 3 3 3 3 3 3 3 3 3 3 3 0 0 0 0 0 0 0 0 0 0 0 0 0 0 0 0 0 0 0 0 0 0 0 0 0 0 0 0 0 0
3 3 3 3 3 3 0 0 3 3 3 3 0 0 0 0 0 0 0 0 0 0 0 0 0 0 0 0 0 0 0 0 0 0 0 0 0 0 0 0 0 0 0
6 3 3 3 3 0 0 0 0 0 0 0 0 0 0 0 0 0 0 0 0 0 0 0 0 0 0 0 0 0 0 0 0 0 0 0 0 0 0 0 0 0 0
3 3 3 3 0 0 0 0 0 0 0 0 0 0 0 0 0 0 0 0 0 0 0 0 0 0 0 0 0 0 0 0 0 0 0 0 0 0 0 0 0 0 0
3 3 3 3 0 0 0 0 0 0 0 0 0 0 0 0 0 0 0 0 0 0 0 0 0 0 0 0 0 0 0 0 0 0 0 0 0 0 0 0 0 0 0
3 3 3 0 0 0 0 0 0 0 0 0 0 0 0 0 0 0 0 0 0 0 0 0 0 0 0 0 0 0 0 0 0 0 0 0 0 0 0 0 0 0 0

GEFSMA_con_cape1000_162.txt.gz
Probability
39 39 48 39 39 29 26 29 35 35 29 23 10 13 10 6 3 3 26 61 65 68 68 65 61 65 68 65 65 61 48 52 48 55 55 58 52 52 52 48 45 35 48
32 35 26 26 26 29 19 19 19 23 19 16 13 13 6 6 6 3 6 32 55 68 71 68 65 65 58 68 61 58 48 48 48 52 48 48 58 48 45 42 45 32 35
29 26 19 19 19 16 16 16 13 10 10 10 10 6 6 6 3 6 6 13 26 39 65 68 65 61 61 61 55 55 48 48 45 45 42 42 39 42 45 39 39 42 39
23 23 26 23 13 10 6 6 0 3 6 3 3 6 6 3 3 6 6 10 10 16 32 58 68 65 61 61 55 48 48 48 48 42 39 32 39 32 32 29 35 35 29
23 19 16 19 13 10 6 13 3 0 0 0 0 0 0 0 0 3 3 10 6 6 10 26 52 52 55 55 52 48 48 45 45 39 39 35 35 26 26 19 19 26 16
29 23 13 13 10 10 10 6 3 0 0 0 0 0 0 0 0 0 3 3 6 6 3 10 19 29 45 48 45 48 39 45 48 39 32 32 32 23 19 16 13 10 10
26 13 13 13 13 13 10 10 6 0 0 0 0 0 0 0 0 0 0 3 6 6 6 3 3 3 13 35 42 48 45 45 45 39 35 32 29 23 16 13 13 6 6
13 13 16 13 16 13 13 6 3 0 0 0 0 0 0 0 0 0 0 0 3 6 3 6 3 0 0 0 6 26 39 39 45 42 42 35 26 19 19 10 13 6 3
13 10 10 13 10 6 6 3 3 0 0 0 0 0 0 0 0 0 0 0 0 0 0 3 3 0 0 0 0 3 26 23 32 35 35 26 23 19 16 10 10 10 6
16 13 13 13 10 3 3 3 3 3 3 0 0 0 0 0 0 0 0 0 0 0 0 0 3 0 3 0 0 0 0 3 13 19 26 16 16 16 13 10 10 6 10
10 13 16 16 6 6 6 3 3 0 0 0 0 0 0 0 0 0 0 0 0 0 0 0 0 0 0 0 0 0 0 0 0 3 6 10 13 10 10 3 3 6 6
6 13 13 10 6 6 3 3 3 0 0 0 0 0 0 0 0 0 0 0 0 0 0 0 0 0 0 0 0 0 0 0 0 0 0 3 6 6 6 6 6 6 6
6 6 10 3 3 3 3 3 3 3 0 0 0 0 0 0 0 0 0 0 0 0 0 0 0 0 0 0 0 0 0 0 0 0 0 0 3 3 6 6 6 6 3
3 3 3 3 3 3 3 3 0 0 0 0 0 0 0 0 0 0 0 0 0 0 0 0 0 0 0 0 0 0 0 0 0 0 0 0 0 3 6 6 0 0 0
3 3 3 3 3 3 3 0 0 0 0 0 0 0 0 0 0 0 0 0 0 0 0 0 0 0 0 0 0 0 0 0 0 0 0 0 0 0 0 0 0 0 0
3 3 6 3 3 0 0 0 0 0 0 0 0 0 0 0 0 0 0 0 0 0 0 0 0 0 0 0 0 0 0 0 0 0 0 0 0 0 0 0 0 0 0
6 6 6 6 0 0 0 0 0 0 0 0 0 0 0 0 0 0 0 0 0 0 0 0 0 0 0 0 0 0 0 0 0 0 0 0 0 0 0 0 0 0 0
3 3 3 3 3 3 0 0 0 0 0 0 0 0 0 0 0 0 0 0 0 0 0 0 0 0 0 0 0 0 0 0 0 0 0 0 0 0 0 0 0 0 0
6 6 3 3 3 3 3 0 0 0 0 0 0 0 0 0 0 0 0 0 0 0 0 0 0 0 0 0 0 0 0 0 0 0 0 0 0 0 0 0 0 0 0
3 3 3 3 3 3 3 3 0 0 0 0 0 0 0 0 0 0 0 0 0 0 0 0 0 0 0 0 0 0 0 0 0 0 0 0 0 0 0 0 0 0 0
3 3 3 3 3 3 3 3 3 0 0 0 0 0 0 0 0 0 0 0 0 0 0 0 0 0 0 0 0 0 0 0 0 0 0 0 0 0 0 0 0 0 0
3 3 3 3 3 3 0 0 0 0 0 0 0 0 0 0 0 0 0 0 0 0 0 0 0 0 0 0 0 0 0 0 0 0 0 0 0 0 0 0 0 0 0
0 0 0 0 0 0 0 0 0 0 0 0 0 0 0 0 0 0 0 0 0 0 0 0 0 0 0 0 0 0 0 0 0 0 0 0 0 0 0 0 0 0 0
0 0 0 0 0 0 0 0 0 0 0 0 0 0 0 0 0 0 0 0 0 0 0 0 0 0 0 0 0 0 0 0 0 0 0 0 0 0 0 0 0 0 0
0 0 0 0 0 0 0 0 0 0 0 0 0 0 0 0 0 0 0 0 0 0 0 0 0 0 0 0 0 0 0 0 0 0 0 0 0 0 0 0 0 0 0
0 0 0 0 0 0 0 0 0 0 0 0 0 0 0 0 0 0 0 0 0 0 0 0 0 0 0 0 0 0 0 0 0 0 0 0 0 0 0 0 0 0 0

GEFSMA_con_cape1000_168.txt.gz
Probability
35 39 26 29 32 32 32 32 29 29 35 35 32 35 32 26 23 16 10 23 55 55 58 55 61 61 61 61 61 58 61 65 68 65 65 55 58 48 52 55 55 48 52
32 26 16 19 23 26 23 23 19 23 26 26 29 29 19 13 16 19 19 19 35 48 52 52 58 65 58 61 58 61 58 61 65 55 58 52 55 48 52 52 52 42 45
19 10 13 13 13 16 13 16 16 6 6 10 16 13 13 13 10 6 6 10 16 32 35 52 55 61 58 58 58 58 61 52 55 52 42 39 42 35 35 32 35 26 29
10 6 13 13 13 10 13 6 3 0 0 3 6 6 10 10 10 3 3 3 3 10 26 29 45 58 55 55 55 55 58 55 48 42 42 39 35 29 29 26 23 23 19
13 6 6 6 6 3 3 10 0 0 0 0 0 0 0 0 0 3 3 3 3 3 16 23 35 39 45 52 52 58 55 55 48 45 39 45 32 26 23 26 19 16 13
13 6 3 3 3 3 3 0 0 0 0 0 0 0 0 0 0 0 0 3 3 3 3 6 23 29 39 48 52 52 48 45 48 42 35 29 29 29 26 23 16 16 13
16 6 3 3 0 3 3 3 0 0 0 0 0 0 0 0 0 0 0 0 0 3 3 3 10 10 16 32 35 45 52 45 45 39 32 26 29 29 26 23 13 10 10
0 10 0 0 0 0 3 3 0 0 0 0 0 0 0 0 0 0 0 0 0 3 3 3 3 6 6 19 16 26 35 48 42 32 29 29 26 29 23 16 16 10 6
6 6 0 0 0 0 0 0 0 0 0 0 0 0 0 0 0 0 0 0 0 0 0 3 0 0 6 10 10 0 10 6 29 29 29 29 26 23 26 19 16 16 10
3 0 0 0 0 0 3 0 0 0 0 0 0 0 0 0 0 0 0 0 0 0 0 0 0 3 3 6 0 0 0 0 6 13 19 26 26 19 13 16 19 13 13
3 3 3 0 0 0 3 3 3 0 0 0 0 0 0 0 0 0 0 0 0 0 0 0 0 0 0 3 3 0 0 0 0 0 3 6 13 13 13 13 10 6 10
3 3 3 3 3 0 0 0 3 3 3 0 0 0 0 0 0 0 0 0 0 0 0 0 0 0 0 0 0 0 0 0 0 0 0 3 3 3 3 3 3 3 6
3 3 3 3 0 3 0 0 3 3 0 0 0 0 0 0 0 0 0 0 0 0 0 0 0 0 0 0 0 0 0 0 0 0 0 0 3 3 3 3 0 0 6
3 3 3 3 0 0 0 0 0 0 0 0 0 0 0 0 0 0 0 0 0 0 0 0 0 0 0 3 0 0 0 0 0 0 0 0 0 0 0 0 0 3 3
3 3 3 3 3 0 0 0 3 0 3 0 0 0 0 0 0 0 0 0 0 0 0 0 0 0 0 3 0 0 0 0 0 0 0 0 0 0 0 0 0 0 0
3 3 3 3 3 3 3 3 3 0 0 0 0 0 0 0 0 0 0 0 0 0 0 0 0 0 0 0 0 0 0 0 0 0 0 0 0 0 0 0 0 0 0
3 3 3 3 3 3 3 3 3 0 0 0 0 0 0 0 0 0 0 0 0 0 0 0 0 0 0 0 0 0 0 0 0 0 0 0 0 0 0 0 0 0 0
3 3 3 3 3 3 0 0 0 0 0 0 0 0 0 0 0 0 0 0 0 0 0 0 0 0 0 0 0 0 0 0 0 0 0 0 0 0 0 0 0 0 0
3 3 3 3 3 3 0 0 0 0 0 0 0 0 0 0 0 0 0 0 0 0 0 0 0 0 0 0 0 0 0 0 0 0 0 0 0 0 0 0 0 0 0
3 3 3 3 3 0 3 0 0 0 0 0 0 0 0 0 0 0 0 0 0 0 0 0 0 0 0 0 0 0 0 0 0 0 0 0 0 0 0 0 0 0 0
3 3 3 3 3 0 3 3 3 0 0 0 0 0 0 0 0 0 0 0 0 0 0 0 0 0 0 0 0 0 0 0 0 0 0 0 0 0 0 0 0 0 0
3 3 3 3 0 0 0 0 0 3 0 0 0 0 0 0 0 0 0 0 0 0 0 0 0 0 0 0 0 0 0 0 0 0 0 0 0 0 0 0 0 0 0
3 3 3 3 0 0 0 0 0 0 0 0 0 0 0 0 0 0 0 0 0 0 0 0 0 0 0 0 0 0 0 0 0 0 0 0 0 0 0 0 0 0 0
3 3 0 0 0 0 0 0 0 0 0 0 0 0 0 0 0 0 0 0 0 0 0 0 0 0 0 0 0 0 0 0 0 0 0 0 0 0 0 0 0 0 0
0 0 0 0 0 0 0 0 0 0 0 0 0 0 0 0 0 0 0 0 0 0 0 0 0 0 0 0 0 0 0 0 0 0 0 0 0 0 0 0 0 0 0
0 0 0 0 0 0 0 0 0 0 0 0 0 0 0 0 0 0 0 0 0 0 0 0 0 0 0 0 0 0 0 0 0 0 0 0 0 0 0 0 0 0 0

GEFSMA_con_cape1000_174.txt.gz
Probability
71 71 71 74 71 68 74 77 68 65 71 61 52 42 48 52 52 45 52 52 52 58 61 71 68 68 65 65 65 61 65 52 55 65 65 55 58 58 61 61 58 61 65
71 68 71 71 71 71 71 68 65 65 71 61 55 42 39 45 42 55 48 48 52 61 61 61 61 61 55 58 52 55 55 48 52 58 61 55 55 48 55 55 58 45 48
68 65 65 68 68 68 68 65 58 71 68 58 52 42 45 39 45 52 45 45 42 48 55 55 58 55 65 52 55 58 55 45 52 55 52 52 48 45 52 52 45 48 45
65 68 65 58 65 65 61 58 61 55 55 52 52 42 42 55 42 45 45 42 52 39 42 52 45 55 52 55 58 55 55 48 52 48 48 45 45 39 35 39 35 35 35
48 48 55 68 65 61 61 55 42 45 42 45 45 55 45 39 45 39 39 39 39 42 35 35 42 42 39 45 52 52 52 55 55 48 48 45 45 48 35 29 26 19 19
48 45 45 48 52 58 58 58 45 42 42 48 19 23 35 39 35 35 26 19 32 32 23 23 35 32 32 35 39 48 52 55 55 52 52 48 48 48 32 26 23 19 16
42 45 42 45 48 48 48 48 39 35 42 32 29 16 26 19 19 19 10 16 16 16 19 19 23 23 23 29 29 39 35 48 55 52 55 55 52 42 32 23 19 19 16
45 32 39 39 39 39 35 32 32 39 29 26 26 23 13 16 23 6 6 6 6 13 16 16 16 23 19 19 19 29 32 35 42 52 55 55 52 39 29 26 23 19 19
35 35 35 35 39 35 35 35 26 26 26 19 23 16 10 3 13 6 6 6 10 10 10 13 13 13 23 19 32 26 29 29 35 39 42 45 48 35 26 26 23 23 23
32 32 32 29 29 26 35 29 23 26 19 19 19 19 13 10 10 10 6 3 10 16 13 10 10 13 13 19 19 16 16 6 16 26 39 42 42 42 23 19 23 19 19
35 26 29 29 29 29 23 23 19 16 13 13 16 13 13 10 6 3 3 3 3 3 10 6 10 13 6 13 19 13 6 0 0 6 16 29 35 39 29 26 29 26 26
29 23 23 26 23 26 23 19 23 19 10 13 16 16 13 13 6 3 0 3 3 0 6 10 13 16 16 13 13 0 0 0 0 3 3 13 16 10 16 16 16 19 16
29 26 19 19 19 19 19 16 19 13 13 13 19 13 16 6 6 3 0 0 3 3 3 6 10 10 6 16 16 0 0 0 0 0 3 3 3 6 6 13 13 13 13
26 19 19 16 16 16 10 13 13 10 13 16 13 16 10 6 3 6 3 3 0 3 3 6 10 10 13 13 13 0 3 0 0 0 0 0 0 0 3 3 0 3 3
13 16 16 13 13 10 6 13 10 10 16 16 13 13 13 3 3 3 3 6 0 0 3 6 3 6 10 6 0 6 6 0 0 0 0 0 0 0 0 0 0 0 0
13 10 10 13 13 13 10 10 13 10 13 13 13 13 10 3 6 6 3 6 6 3 3 6 3 6 6 0 0 6 6 0 0 0 0 0 0 0 0 0 0 0 0
10 13 10 13 13 10 10 10 10 10 13 10 10 3 3 6 6 6 6 6 3 3 0 3 3 6 3 3 3 3 3 3 0 0 0 0 0 0 0 0 0 0 0
13 10 10 10 10 10 16 10 6 3 6 6 3 3 3 3 3 6 3 3 6 0 0 0 3 3 3 3 3 3 3 0 3 0 0 0 0 0 0 0 0 0 0
10 13 13 13 10 10 10 6 10 10 3 3 3 3 3 0 3 0 0 0 0 0 0 0 0 0 3 3 3 3 0 3 0 0 0 0 0 0 0 0 0 0 0
10 13 13 6 10 6 10 10 10 13 6 6 6 6 0 0 0 0 0 0 0 0 0 0 0 0 3 3 3 3 0 0 0 0 0 0 0 0 0 0 0 0 0
10 6 10 10 10 10 10 10 10 6 6 6 3 3 0 0 0 0 0 0 0 0 0 0 0 0 0 3 3 3 3 0 0 0 0 0 0 0 0 0 0 0 0
10 6 6 10 10 6 6 6 6 6 6 6 3 3 3 0 0 0 0 0 0 3 3 3 0 0 0 3 3 3 3 0 0 0 0 0 0 0 0 0 0 0 0
10 6 6 10 6 6 0 0 3 6 6 3 3 3 3 0 0 0 0 0 0 0 0 0 0 0 0 0 0 0 0 0 0 3 0 0 0 0 0 0 0 0 0
3 6 6 6 6 6 0 0 0 3 3 3 6 3 3 3 3 3 3 0 0 0 0 0 0 0 0 0 0 0 0 0 0 0 0 0 0 0 0 0 0 0 0
3 3 6 6 10 10 0 0 0 0 6 3 3 3 3 3 0 0 0 0 0 0 0 0 0 0 0 0 0 0 0 0 0 0 0 0 0 0 0 0 0 0 0
3 3 3 6 6 6 0 0 0 0 3 0 3 3 0 0 0 0 0 0 0 0 0 0 0 0 0 0 0 0 0 0 0 0 0 0 0 0 0 0 0 0 0

GEFSMA_con_cape1000_180.txt.gz
Probability
68 71 71 68 61 65 71 74 71 71 68 61 52 52 61 55 52 58 52 68 68 68 68 71 71 71 74 65 71 71 71 68 68 68 65 58 58 61 68 68 71 65 61
68 68 65 65 65 65 61 68 65 65 61 55 55 61 58 58 55 61 52 55 61 65 65 65 68 71 68 68 65 68 74 71 77 71 65 58 55 55 58 61 61 55 61
68 65 65 61 65 58 55 58 58 61 52 45 52 58 48 55 55 52 55 48 48 58 61 68 65 71 71 61 65 61 71 68 68 71 65 65 58 52 48 48 48 52 48
61 65 61 61 61 55 52 52 48 39 42 39 42 45 48 52 52 48 52 48 48 32 52 58 61 65 68 65 61 61 61 68 61 58 58 58 55 42 45 45 48 48 45
48 55 55 55 55 48 45 42 39 45 39 35 32 35 35 45 35 23 39 39 45 39 39 48 58 68 55 52 58 61 61 61 61 52 52 52 55 48 39 35 42 42 39
39 45 39 45 45 42 42 42 45 45 42 39 23 13 23 26 26 29 32 23 32 35 39 29 39 39 48 52 52 52 55 52 58 55 48 48 55 52 42 35 39 32 35
35 39 35 35 42 45 42 39 42 35 39 35 26 19 16 19 26 26 23 26 26 26 26 32 29 19 23 42 45 48 45 52 52 55 48 48 45 48 39 32 32 29 23
35 35 39 35 35 35 39 45 42 35 29 23 16 13 3 10 19 19 23 19 16 23 23 19 23 26 23 16 16 29 39 52 48 48 52 52 52 52 42 29 32 29 23
39 39 39 39 39 39 39 39 32 23 13 13 10 10 3 0 10 19 16 10 10 13 13 16 16 19 23 23 19 16 26 19 39 45 48 55 48 45 42 42 32 29 23
35 35 39 35 35 35 39 39 35 26 16 6 16 13 10 6 3 6 16 10 13 10 6 6 3 16 23 23 19 16 10 10 16 32 39 45 45 42 42 45 48 35 26
42 32 32 29 29 26 35 35 29 19 13 13 10 10 6 10 6 0 0 6 6 10 6 13 19 16 19 16 19 13 6 6 6 13 16 16 26 32 35 35 42 35 29
32 29 26 32 32 29 29 26 23 23 16 13 10 6 6 3 3 3 3 3 3 6 6 6 6 16 10 13 6 3 3 0 3 6 10 13 16 23 23 29 32 29 29
26 26 26 32 32 32 19 26 32 29 23 19 10 6 6 6 6 3 3 0 0 3 6 3 10 16 3 10 3 3 3 0 0 0 0 3 6 16 16 23 29 29 29
19 23 29 23 23 23 16 23 29 19 16 6 3 6 6 6 6 6 0 0 0 0 3 6 6 3 0 3 3 0 0 0 0 0 0 0 0 6 3 6 6 16 16
13 13 23 26 19 16 16 16 16 16 10 3 6 6 6 13 10 6 0 0 0 0 0 0 6 3 3 3 0 0 3 0 0 0 0 0 0 0 0 0 0 0 0
13 13 16 23 23 19 13 10 13 13 6 6 10 10 10 10 6 6 0 0 0 0 0 3 0 3 0 0 0 0 3 0 0 0 0 0 0 0 0 0 0 0 0
16 13 13 19 16 16 13 6 6 6 6 3 3 3 6 6 3 3 0 0 0 0 0 0 0 0 0 0 0 3 0 0 0 0 0 0 0 0 0 0 0 0 0
13 13 10 13 13 13 16 6 6 3 3 3 3 3 3 3 3 3 3 3 0 0 0 0 0 0 0 0 0 0 0 0 0 0 0 0 0 0 0 0 0 0 0
16 13 10 10 10 16 16 13 3 6 6 6 3 3 3 3 3 3 3 3 3 3 3 0 0 0 0 0 0 0 0 0 0 0 0 0 0 0 0 0 0 0 0
19 19 16 13 13 13 13 10 10 6 3 3 3 6 3 6 6 3 3 3 3 0 0 0 0 0 0 0 0 0 0 0 0 0 0 0 0 0 0 0 0 0 0
13 19 16 10 10 6 6 13 6 6 6 6 6 6 6 6 6 3 3 3 0 0 0 0 0 0 0 0 0 0 0 0 0 0 0 0 0 0 0 0 0 0 0
10 13 6 6 6 3 0 0 6 6 6 6 6 6 6 6 3 0 0 0 0 0 0 0 0 0 0 0 0 0 0 0 0 0 0 0 0 0 0 0 0 0 0
10 6 6 6 6 6 0 0 0 6 6 6 6 6 6 6 3 0 0 0 0 0 0 0 0 0 0 0 0 0 0 0 0 0 0 0 0 0 0 0 0 0 0
6 6 6 6 6 3 0 0 0 3 3 6 6 6 6 3 3 3 3 0 0 0 0 0 0 0 0 0 0 0 0 0 0 0 0 0 0 0 0 0 0 0 0
10 6 6 6 3 0 0 0 0 3 3 6 6 3 3 6 3 0 0 3 0 0 0 0 0 0 0 0 0 0 0 0 0 0 0 0 0 0 0 0 0 0 0
10 6 3 3 3 0 0 0 0 3 6 3 3 3 0 0 0 0 0 0 0 0 3 0 0 0 0 0 0 0 0 0 0 0 0 0 0 0 0 0 0 0 0

GEFSMA_con_cape1000_186.txt.gz
Probability
29 29 29 32 45 42 35 29 32 32 35 29 26 16 13 26 26 6 3 52 61 65 71 74 74 77 74 74 74 74 71 71 74 71 71 74 74 74 74 68 71 65 65
32 29 29 29 32 32 26 26 19 13 16 13 10 13 10 3 3 3 6 29 55 61 68 71 68 65 65 74 71 71 68 74 68 68 68 68 71 68 65 65 61 61 61
23 23 23 23 26 19 19 16 10 10 3 0 3 3 3 0 0 0 3 10 23 48 58 61 61 68 65 65 68 71 68 71 71 71 65 61 61 61 61 58 58 58 58
23 23 19 16 16 13 16 13 6 3 3 3 3 3 3 0 0 0 0 0 6 13 29 48 52 55 58 61 61 65 68 68 65 65 61 48 52 45 45 58 55 52 45
32 29 23 19 16 13 13 13 3 3 3 3 3 0 0 0 0 0 0 0 0 3 3 19 39 48 55 55 52 52 61 71 68 58 58 45 48 48 45 48 55 48 45
26 26 23 19 16 16 6 6 6 0 3 0 0 0 0 0 0 0 0 0 0 0 3 3 3 29 45 52 55 52 58 55 55 52 48 48 45 48 48 45 45 42 45
19 23 26 16 16 13 3 3 3 3 0 0 0 0 0 0 0 0 0 0 0 0 3 0 3 3 10 32 48 48 52 45 48 48 48 48 55 45 39 35 29 35 42
26 26 13 16 10 10 6 3 3 3 3 3 0 0 0 0 0 0 0 0 0 0 0 0 0 0 3 3 13 29 45 48 39 42 48 45 45 39 42 39 26 29 32
26 23 16 16 16 13 10 10 3 3 3 3 0 0 0 0 0 0 0 0 0 0 0 0 0 0 0 0 0 6 32 32 35 35 42 39 39 42 42 42 32 29 32
19 19 13 13 13 13 13 6 6 3 0 3 3 0 0 0 0 0 0 0 0 0 0 0 0 0 0 0 0 0 3 6 16 29 29 39 32 32 32 35 32 32 35
10 10 3 3 6 10 10 10 6 6 3 3 3 3 3 0 0 0 0 0 0 0 0 0 0 0 0 0 0 0 0 0 0 3 6 19 26 19 23 23 29 35 29
6 3 3 3 0 0 3 3 3 6 6 3 3 3 3 0 0 0 0 0 0 0 0 0 0 0 0 0 0 0 0 0 0 0 3 6 10 10 16 19 23 29 29
3 0 0 0 0 0 0 3 3 3 3 3 3 3 3 0 0 0 0 0 0 0 0 0 0 0 0 0 0 0 0 0 0 0 0 0 3 6 10 13 19 29 29
0 0 0 0 0 0 0 0 0 3 3 3 3 0 3 3 0 0 0 0 0 0 0 0 0 0 0 0 0 0 0 0 0 0 0 0 0 0 0 3 6 6 6
0 0 0 0 0 0 0 0 0 3 3 3 3 3 0 3 0 0 0 0 0 0 0 0 0 0 0 0 0 0 0 0 0 0 0 0 0 0 0 0 0 3 3
0 3 0 0 0 0 0 0 0 0 3 3 3 3 3 0 0 0 0 0 0 0 0 0 0 0 0 0 0 0 0 0 0 0 0 0 0 0 0 0 0 0 0
3 0 0 0 0 0 0 0 0 0 0 0 3 3 3 3 0 0 0 0 0 0 0 0 0 0 0 0 0 0 0 0 0 0 0 0 0 0 0 0 0 0 0
0 0 0 0 0 0 0 0 0 0 0 0 0 3 3 3 0 0 0 0 0 0 0 0 0 0 0 0 0 0 0 0 0 0 0 0 0 0 0 0 0 0 0
0 0 0 0 0 0 0 0 0 0 0 0 0 0 0 3 0 0 0 0 0 0 0 0 0 0 0 0 0 0 0 0 0 0 0 0 0 0 0 0 0 0 0
0 0 0 0 0 0 0 0 0 0 0 0 0 0 0 0 0 3 0 0 0 0 0 0 0 0 0 0 0 0 0 0 0 0 0 0 0 0 0 0 0 0 0
0 0 0 0 0 0 0 0 0 0 0 0 0 0 0 0 0 3 3 0 0 0 0 0 0 0 0 0 0 0 0 0 0 0 0 0 0 0 0 0 0 0 0
0 0 0 0 0 0 0 0 0 0 0 0 0 0 0 0 0 0 0 0 0 0 0 0 0 0 0 0 0 0 0 0 0 0 0 0 0 0 0 0 0 0 0
0 0 0 0 0 0 0 0 0 0 0 0 0 0 0 0 0 0 0 0 0 0 0 0 0 0 0 0 0 0 0 0 0 0 0 0 0 0 0 0 0 0 0
0 0 0 0 0 0 0 0 0 0 0 0 0 0 0 0 0 0 0 0 0 0 0 0 0 0 0 0 0 0 0 0 0 0 0 0 0 0 0 0 0 0 0
0 0 0 0 0 0 0 0 0 0 0 0 0 0 0 0 0 0 0 0 0 0 0 0 0 0 0 0 0 0 0 0 0 0 0 0 0 0 0 0 0 0 0
0 0 0 0 0 0 0 0 0 0 0 0 0 0 0 0 0 0 0 0 0 0 0 0 0 0 0 0 0 0 0 0 0 0 0 0 0 0 0 0 0 0 0

GEFSMA_con_cape1000_192.txt.gz
Probability
39 35 39 35 35 39 39 42 42 42 39 32 35 29 26 29 32 26 19 39 61 58 65 68 71 71 71 74 77 74 77 71 68 65 68 65 65 61 65 71 74 74 68
35 32 32 32 32 32 32 39 39 32 29 32 26 23 19 16 19 19 13 16 45 65 65 65 68 68 68 71 71 77 71 77 74 77 61 65 65 65 61 55 65 68 68
29 26 23 26 19 26 32 26 19 23 23 16 13 16 10 10 10 6 3 3 13 35 61 61 65 68 61 61 65 68 68 74 81 77 65 55 65 65 61 52 55 58 61
23 23 16 13 19 23 26 19 16 13 16 10 6 6 6 6 6 6 0 3 6 6 32 45 52 55 55 52 55 55 61 68 71 74 65 58 52 61 55 55 52 45 52
16 19 13 13 13 16 16 10 10 13 10 6 6 6 6 6 3 0 3 3 3 6 13 23 42 45 45 48 45 42 48 52 58 68 61 61 52 42 45 35 35 39 35
13 16 13 13 13 13 10 10 6 6 6 10 6 6 3 0 0 0 0 3 0 0 0 6 29 32 42 42 39 39 39 45 45 39 42 52 48 39 39 29 29 32 32
10 10 16 16 16 10 10 10 6 6 6 0 3 3 3 3 0 3 0 0 0 0 0 0 3 13 16 29 35 39 39 39 42 39 39 42 42 35 35 32 23 23 26
6 10 13 13 13 13 10 6 6 6 6 3 3 3 3 3 0 0 0 0 0 0 0 0 3 3 0 10 6 26 32 32 32 39 29 29 35 32 32 32 29 26 23
3 6 6 6 10 13 10 3 3 0 0 0 3 3 3 0 0 0 0 0 0 0 0 0 0 0 0 0 0 6 19 16 19 26 26 26 29 26 29 29 32 26 23
3 3 3 3 3 3 3 3 3 0 0 0 0 0 0 0 0 0 0 0 0 0 0 0 0 0 0 0 0 0 6 3 13 16 23 23 23 16 23 23 23 29 26
0 0 3 3 3 3 3 3 3 3 0 0 3 3 3 3 0 0 0 0 0 0 0 0 0 0 0 0 0 0 0 0 3 3 6 16 16 13 13 13 16 19 19
0 0 3 0 0 0 0 0 0 0 0 0 0 0 0 0 0 0 0 0 0 0 0 0 0 0 0 0 0 0 0 0 0 0 3 3 3 13 13 16 16 13 13
0 0 0 0 0 0 0 0 0 0 0 0 0 0 0 0 0 0 0 0 0 0 0 0 0 0 0 0 0 0 0 0 0 0 0 3 3 3 6 13 13 10 10
0 0 0 0 0 0 0 0 0 0 0 0 0 0 0 0 0 0 0 0 0 0 0 0 0 0 0 0 0 0 0 0 0 0 0 0 0 3 3 3 6 6 10
0 0 0 0 0 0 0 0 0 0 0 0 0 0 0 0 0 0 0 0 0 0 0 0 0 0 0 0 0 0 0 0 0 0 0 0 0 0 0 3 0 0 0
0 0 0 0 0 0 0 0 0 0 0 0 0 0 0 0 0 0 0 0 0 0 0 0 0 0 0 0 0 0 0 0 0 0 0 0 0 0 0 0 0 0 0
0 0 0 0 0 0 0 0 0 0 0 0 0 0 0 0 0 0 0 0 0 0 0 0 0 0 0 0 0 0 0 0 0 0 0 0 0 0 0 0 0 0 0
0 0 0 0 0 0 0 0 0 0 0 0 0 0 0 0 0 0 0 0 0 0 0 0 0 0 0 0 0 0 0 0 0 0 0 0 0 0 0 0 0 0 0
0 0 0 0 0 0 0 0 0 0 0 0 0 0 0 0 0 0 0 0 0 0 0 0 0 0 0 0 0 0 0 0 0 0 0 0 0 0 0 0 0 0 0
0 0 0 0 0 0 0 0 0 0 0 0 0 0 0 0 0 0 0 0 0 0 0 0 0 0 0 0 0 0 0 0 0 0 0 0 0 0 0 0 0 0 0
0 0 0 0 0 0 0 0 0 0 0 0 0 0 0 0 0 0 0 0 0 0 0 0 0 0 0 0 0 0 0 0 0 0 0 0 0 0 0 0 0 0 0
0 0 0 0 0 0 0 0 0 0 0 0 0 0 0 0 0 0 0 0 0 0 0 0 0 0 0 0 0 0 0 0 0 0 0 0 0 0 0 0 0 0 0
0 0 0 0 0 0 0 0 0 0 0 0 0 0 0 0 0 0 0 0 0 0 0 0 0 0 0 0 0 0 0 0 0 0 0 0 0 0 0 0 0 0 0
0 0 0 0 0 0 0 0 0 0 0 0 0 0 0 0 0 0 0 0 0 0 0 0 0 0 0 0 0 0 0 0 0 0 0 0 0 0 0 0 0 0 0
0 0 0 0 0 0 0 0 0 0 0 0 0 0 0 0 0 0 0 0 0 0 0 0 0 0 0 0 0 0 0 0 0 0 0 0 0 0 0 0 0 0 0
0 0 0 0 0 0 0 0 0 0 0 0 0 0 0 0 0 0 0 0 0 0 0 0 0 0 0 0 0 0 0 0 0 0 0 0 0 0 0 0 0 0 0

GEFSMA_con_cape1000_198.txt.gz
Probability
52 58 58 61 61 55 55 55 58 55 58 48 45 35 35 26 26 19 39 48 58 58 61 68 61 65 74 74 71 71 71 74 77 81 77 77 68 65 68 68 68 65 65
52 52 42 48 45 45 45 52 48 45 48 52 42 42 32 26 29 32 29 35 55 52 52 58 61 58 58 74 71 71 71 68 71 77 74 74 74 58 58 65 65 65 58
45 42 39 42 42 39 45 48 42 39 42 42 39 42 45 29 26 29 26 26 32 48 48 52 55 55 55 58 61 61 65 65 61 68 68 68 65 55 58 55 58 58 58
45 45 42 39 42 42 42 42 35 35 42 42 45 48 48 42 35 29 19 23 26 26 32 48 52 52 55 55 55 52 58 58 58 55 58 65 61 61 55 52 52 52 48
45 45 39 39 45 48 45 42 42 39 35 42 39 45 35 35 35 19 16 19 19 26 29 42 45 48 52 55 55 48 55 55 55 52 52 58 58 61 61 52 42 42 39
39 39 39 39 35 45 42 39 35 35 35 32 26 19 26 29 32 29 29 16 19 23 26 23 39 45 48 55 55 52 48 55 52 52 48 45 52 55 48 42 35 35 35
26 32 26 32 32 29 35 29 32 32 32 35 35 19 19 26 26 29 26 16 13 13 19 26 29 35 45 42 45 45 42 45 45 48 52 48 42 42 45 42 35 35 29
23 23 32 29 29 29 29 29 29 29 26 29 26 23 16 23 26 19 26 19 10 13 16 10 26 39 32 35 29 39 39 42 42 42 45 48 35 32 35 35 26 29 29
16 26 23 26 26 29 35 35 32 26 29 23 23 23 10 13 10 10 19 16 13 13 13 10 23 32 32 39 32 16 32 35 39 39 39 42 35 23 26 29 26 23 26
13 13 16 19 32 29 32 29 26 29 29 23 26 23 16 3 13 6 13 10 10 10 13 10 6 23 32 39 35 16 6 6 16 29 29 32 23 23 23 23 23 26 23
10 13 16 19 26 32 29 29 32 29 29 23 23 19 16 10 3 13 3 3 6 6 10 16 19 16 23 26 32 23 3 0 3 10 16 23 19 19 19 19 23 23 26
6 10 13 16 19 26 32 29 29 29 29 29 26 13 13 6 3 6 6 6 13 6 6 10 26 23 23 23 13 0 0 0 0 0 0 10 13 19 19 16 16 23 23
6 13 3 10 6 13 16 19 26 26 26 26 26 19 16 6 10 13 10 13 10 6 16 10 10 10 10 13 13 0 0 0 0 0 0 0 6 10 10 13 13 16 19
3 3 3 3 3 3 13 16 19 26 23 26 13 19 19 13 13 10 6 6 3 13 16 3 3 10 16 16 6 0 0 0 0 0 0 0 0 0 3 6 6 6 6
0 3 0 0 0 0 13 13 16 16 16 13 19 19 6 10 10 6 6 6 3 3 0 3 6 6 19 19 0 3 10 0 0 0 0 0 0 0 0 0 0 0 0
0 3 0 3 3 3 6 10 10 6 6 6 13 3 3 10 13 6 6 6 6 6 0 0 6 0 10 0 0 6 3 0 0 0 0 0 0 0 0 0 0 0 0
0 0 6 3 3 0 3 3 3 3 0 3 3 3 3 3 3 6 6 6 6 6 0 0 3 6 6 3 3 6 3 3 0 0 0 0 0 0 0 0 0 0 0
3 3 3 0 0 0 0 3 3 3 3 0 0 3 3 3 3 3 3 3 3 6 3 0 3 6 3 6 3 3 0 0 3 0 0 0 0 0 0 0 0 0 0
0 0 0 0 0 0 0 3 3 3 3 0 0 0 0 0 3 0 3 3 3 3 6 10 3 6 3 3 3 0 0 3 0 0 0 0 0 0 0 0 0 0 0
0 0 0 0 3 0 0 0 3 3 3 0 0 0 0 0 0 0 0 3 3 3 6 6 6 0 0 0 0 0 0 10 0 0 0 0 0 0 0 0 0 0 0
0 0 0 3 3 3 0 0 3 0 3 3 0 0 0 0 0 0 0 0 0 0 0 6 6 0 0 0 0 0 0 0 3 0 3 0 0 0 0 0 0 0 0
3 3 0 0 3 0 0 0 0 3 3 3 0 0 0 0 0 0 0 0 0 0 0 0 0 0 0 0 0 0 0 0 0 3 0 0 0 0 0 0 0 0 0
6 3 0 0 3 0 0 0 0 3 3 3 0 0 0 0 0 0 0 0 0 0 0 0 0 0 0 0 0 0 0 0 0 0 0 0 0 0 0 0 0 0 0
10 6 3 3 6 3 0 0 0 0 3 3 0 0 0 0 0 0 0 0 0 0 0 0 0 0 0 0 0 0 0 0 0 0 0 0 0 0 0 0 0 0 0
6 6 3 3 6 6 0 0 0 0 0 0 0 0 0 0 0 0 0 0 0 0 0 0 0 0 0 0 0 0 0 0 0 0 0 0 0 0 0 6 0 0 0
3 3 3 10 6 6 3 0 0 0 0 0 0 0 0 0 0 0 0 0 0 0 0 0 0 0 0 0 0 0 0 0 0 0 0 0 0 3 3 3 0 0 0

GEFSMA_con_cape1000_204.txt.gz
Probability
55 52 55 55 55 55 55 48 39 52 45 39 39 32 19 16 29 32 42 55 55 52 65 61 65 68 68 68 68 68 74 74 71 81 84 81 81 77 77 71 68 65 65
48 48 48 45 42 45 45 48 42 39 42 39 39 39 32 26 26 29 26 35 48 52 61 65 61 68 65 61 68 68 68 71 68 71 74 77 74 77 74 68 65 61 61
48 42 45 45 39 48 48 48 45 42 42 39 39 35 35 35 29 29 26 26 35 48 58 58 61 55 61 52 58 65 68 68 71 71 74 71 74 74 68 68 58 58 58
45 45 42 42 45 42 45 48 48 45 35 39 35 35 35 35 35 35 29 23 26 26 35 45 52 55 58 55 52 55 58 61 58 68 68 68 68 68 65 58 48 52 55
39 35 39 35 39 35 45 35 39 35 39 29 32 32 39 35 39 32 29 29 23 19 16 19 39 55 52 52 52 52 52 52 61 58 61 58 58 58 65 55 52 48 45
23 26 29 26 29 32 45 39 42 39 35 26 19 19 32 35 42 35 32 19 19 16 16 13 3 13 45 58 58 52 48 48 48 55 48 52 52 58 55 55 52 45 42
19 26 23 29 32 32 39 39 35 29 29 35 26 23 23 29 29 29 19 19 10 10 10 19 19 23 3 29 45 48 45 48 48 45 45 42 48 45 45 45 45 42 35
29 19 26 26 32 29 29 23 35 26 23 26 19 13 13 19 16 6 13 10 10 16 10 10 16 16 13 3 0 42 42 42 45 48 42 42 42 48 39 39 35 35 29
23 26 26 16 29 26 26 29 23 23 16 16 19 13 13 6 6 13 10 6 16 6 10 6 10 13 13 10 3 3 23 29 32 42 45 42 45 32 35 29 29 26 26
26 29 26 19 23 32 35 29 19 19 16 13 19 19 19 19 6 3 6 6 13 16 10 3 6 13 16 13 6 3 0 0 16 29 39 42 35 35 32 26 23 23 23
29 29 26 26 23 23 29 29 26 26 26 23 23 23 19 6 6 3 3 13 10 6 10 13 10 10 10 10 10 3 0 0 0 6 13 23 29 26 29 23 23 23 26
26 26 23 23 26 23 26 26 26 23 19 19 19 16 13 13 13 10 3 3 3 3 10 16 16 6 10 3 0 0 0 0 0 0 3 6 10 19 16 19 23 23 26
19 23 16 23 19 19 19 26 26 19 19 19 16 16 10 10 19 10 3 3 0 10 10 10 10 10 0 0 0 0 0 0 0 0 0 0 3 6 16 13 13 16 23
16 19 16 13 13 10 6 10 23 19 19 16 10 16 13 13 16 10 6 3 6 3 0 3 6 6 0 3 0 0 0 0 0 0 0 0 0 0 3 6 6 6 6
6 10 10 10 6 3 3 3 10 13 10 13 10 6 10 10 13 10 10 10 3 0 3 0 3 6 6 3 0 0 0 0 0 0 0 0 0 0 0 0 0 0 0
13 13 6 6 6 3 6 6 0 3 3 3 3 3 6 13 10 13 10 6 6 3 3 0 0 3 3 3 0 0 0 0 0 0 0 0 0 0 0 0 0 0 0
10 10 10 6 3 3 6 0 0 3 0 3 0 0 3 6 10 10 6 10 6 3 0 0 0 0 3 6 0 3 3 0 0 0 0 0 0 0 0 0 0 0 0
16 13 6 3 3 0 3 0 0 0 0 0 0 0 0 0 6 3 3 6 6 6 0 0 3 3 3 3 3 6 0 0 0 0 0 0 0 0 0 0 0 0 0
19 10 6 6 3 3 0 0 0 0 0 0 0 0 0 3 3 3 0 3 6 3 6 3 3 3 6 3 3 0 0 0 0 0 0 0 0 0 0 0 0 0 0
13 10 6 3 0 0 0 0 0 0 0 0 0 0 0 3 0 0 0 3 0 0 0 3 3 6 6 6 6 6 0 3 0 0 0 0 0 0 0 0 0 0 0
6 13 3 3 3 0 0 0 0 0 0 0 0 0 0 0 0 0 0 0 0 0 0 0 3 3 3 0 0 3 0 0 0 0 0 0 0 0 0 0 0 0 0
13 10 3 3 3 0 0 0 0 0 0 0 0 0 0 0 0 0 0 0 0 0 3 0 0 0 0 0 0 0 0 0 0 0 0 0 0 0 0 0 0 0 0
10 10 6 3 3 0 0 0 0 0 0 0 0 0 0 0 0 0 0 0 0 0 0 0 0 3 3 3 0 0 0 0 0 0 0 0 0 0 0 0 0 0 0
6 13 10 3 3 3 0 0 0 0 0 0 0 0 0 0 0 0 0 0 0 0 0 0 0 0 0 0 0 0 0 0 0 0 0 0 0 0 0 0 0 0 0
13 13 13 6 10 3 0 0 0 0 0 0 3 3 0 0 0 0 0 0 0 0 0 0 0 0 0 0 0 0 0 0 0 0 0 0 0 0 0 0 0 0 0
16 10 6 10 6 3 0 0 0 0 0 0 0 0 0 0 0 0 0 3 3 3 0 0 0 0 0 0 0 0 0 0 0 0 0 0 0 0 0 0 0 0 0

GEFSMA_con_cape1000_210.txt.gz
Probability
29 32 32 26 26 29 19 23 26 23 23 19 16 16 16 16 6 3 0 29 42 42 48 45 52 55 61 68 71 71 68 68 71 74 74 71 77 81 77 84 81 77 68
23 19 13 16 19 16 13 10 13 16 16 16 13 13 13 10 10 6 6 16 39 45 52 48 55 55 55 58 65 65 68 68 71 68 71 74 71 68 74 81 77 81 74
3 10 10 6 6 3 6 10 6 10 10 13 10 13 13 6 6 6 6 13 23 35 52 45 45 52 52 52 55 61 61 68 65 65 68 68 74 68 68 77 81 74 71
6 6 3 3 3 3 3 3 6 6 6 3 6 6 6 6 10 3 3 10 6 13 32 45 48 52 48 45 48 48 58 61 61 61 61 61 68 68 71 68 71 61 58
3 0 3 6 3 3 0 3 3 3 3 0 3 3 0 0 0 0 0 6 6 6 6 13 32 35 42 45 42 39 42 61 61 61 61 61 61 61 58 58 58 48 52
3 0 0 0 3 0 0 0 0 0 0 0 3 3 0 0 0 0 3 0 0 0 0 0 10 16 32 39 42 39 42 45 55 58 58 58 58 55 48 48 48 52 45
0 0 0 0 0 0 0 0 0 0 0 0 0 0 0 0 0 0 0 0 0 0 0 0 0 0 6 26 32 39 39 42 45 58 55 55 55 48 39 35 42 48 35
0 0 0 0 0 0 0 0 0 0 0 0 0 0 0 0 0 0 0 0 0 0 0 0 0 0 0 3 3 29 39 42 39 45 48 45 45 39 32 32 35 39 29
0 0 0 0 0 0 0 0 0 0 0 0 0 0 0 0 0 0 0 0 0 0 0 0 0 0 0 0 0 0 19 19 29 32 45 39 35 19 29 29 29 35 35
0 0 0 0 0 0 0 0 0 0 0 0 0 0 0 0 0 0 0 0 0 0 0 0 0 0 0 0 0 0 0 0 10 26 19 23 19 16 19 19 23 23 26
0 0 0 0 0 0 0 0 0 0 0 0 0 0 0 0 0 0 0 0 0 0 0 0 0 0 0 0 0 0 0 0 3 0 13 13 13 6 6 6 10 16 16
0 0 0 0 0 0 0 0 0 0 0 0 0 0 0 0 0 0 0 0 0 0 0 0 0 0 0 0 0 0 0 0 3 0 0 6 6 6 6 6 10 16 13
0 0 0 0 0 0 0 0 0 0 0 0 0 0 0 0 0 0 0 0 0 0 0 0 0 0 0 0 0 0 0 0 0 0 0 0 3 6 6 6 6 13 13
0 0 0 0 0 0 0 0 0 0 0 0 0 0 0 0 0 0 0 0 0 0 0 0 0 0 0 0 0 0 0 0 0 0 0 0 0 0 3 3 3 3 3
0 0 0 0 0 0 0 0 0 0 0 0 0 0 0 0 0 0 0 0 0 0 0 0 0 0 0 0 0 0 0 0 0 0 0 0 0 0 0 0 0 0 0
0 0 0 0 0 0 0 0 0 0 0 0 0 0 0 0 0 0 0 0 0 0 0 0 0 0 0 0 0 0 0 0 0 0 0 0 0 0 0 0 0 0 0
0 0 0 0 0 0 0 0 0 0 0 0 0 0 0 0 0 0 0 0 0 0 0 0 0 0 0 0 0 0 0 0 0 0 0 0 0 0 0 0 0 0 0
0 0 0 0 0 0 0 0 0 0 0 0 0 0 0 0 0 0 0 0 0 0 0 0 0 0 0 0 0 0 0 0 0 0 0 0 0 0 0 0 0 0 0
0 0 0 0 0 0 0 0 0 0 0 0 0 0 0 0 0 0 0 0 0 0 0 0 0 0 0 0 0 0 0 0 0 0 0 0 0 0 0 0 0 0 0
0 0 0 0 0 0 0 0 0 0 0 0 0 0 0 0 0 0 0 0 0 0 0 0 0 0 0 0 0 0 0 0 0 0 0 0 0 0 0 0 0 0 0
0 3 3 0 0 0 0 0 0 0 0 0 0 0 0 0 0 0 0 0 0 0 0 0 0 0 0 0 0 0 0 0 0 0 0 0 0 0 0 0 0 0 0
0 0 0 0 0 0 0 0 0 0 0 0 0 0 0 0 0 0 0 0 0 0 0 0 0 0 0 0 0 0 0 0 0 0 0 0 0 0 0 0 0 0 0
0 0 0 0 0 0 0 0 0 0 0 0 0 0 0 0 0 0 0 0 0 0 0 0 0 0 0 0 0 0 0 0 0 0 0 0 0 0 0 0 0 0 0
0 0 0 0 0 0 0 0 0 0 0 0 0 0 0 0 0 0 0 0 0 0 0 0 0 0 0 0 0 0 0 0 0 0 0 0 0 0 0 0 0 0 0
0 0 0 0 0 0 0 0 0 0 0 0 0 0 0 0 0 0 0 0 0 0 0 0 0 0 0 0 0 0 0 0 0 0 0 0 0 0 0 0 0 0 0
0 0 0 0 0 0 0 0 0 0 0 0 0 0 0 0 0 0 0 0 0 0 0 0 0 0 0 0 0 0 0 0 0 0 0 0 0 0 0 0 0 0 0

GEFSMA_con_cape1000_216.txt.gz
Probability
23 19 23 26 26 29 32 26 26 23 23 29 19 26 32 26 23 19 16 19 39 48 48 48 52 58 61 65 65 61 61 61 61 61 55 61 61 61 65 74 74 74 74
16 16 16 16 23 19 19 16 19 19 16 19 19 19 19 19 19 13 10 13 26 42 52 52 52 48 58 58 61 65 58 61 58 61 61 52 58 58 65 68 71 74 77
6 10 13 13 13 16 16 13 13 10 6 13 13 16 10 10 13 13 13 6 10 32 32 45 48 48 52 52 58 61 61 58 61 61 58 55 55 58 61 68 71 74 74
6 3 3 6 6 10 13 10 6 6 6 6 10 10 6 13 13 10 10 10 13 16 23 35 48 52 55 48 42 45 52 55 55 58 55 55 58 58 55 61 71 71 68
3 3 3 0 0 0 3 3 6 6 3 0 3 3 3 6 10 10 10 10 6 16 13 19 29 39 39 39 35 39 39 42 45 45 52 55 52 48 45 55 61 61 55
0 0 0 0 0 0 0 0 0 0 0 0 0 0 0 0 6 6 3 3 0 3 6 10 13 16 26 32 35 35 39 39 45 45 42 45 55 42 45 48 42 48 48
0 0 0 0 0 0 0 0 0 0 0 0 0 0 0 0 0 0 0 0 0 3 3 3 6 6 10 23 26 32 32 32 39 42 39 42 42 39 35 39 29 26 29
0 0 0 0 0 0 0 0 0 0 0 0 0 0 0 0 0 0 0 0 0 0 3 3 0 3 6 6 6 10 29 39 39 35 39 39 35 39 39 42 39 26 19
0 0 0 0 0 0 0 0 0 0 0 0 0 0 0 0 0 0 0 0 0 0 0 0 0 0 0 3 3 0 6 10 26 23 35 35 29 29 29 29 29 29 26
0 0 0 0 0 0 0 0 0 0 0 0 0 0 0 0 0 0 0 0 0 0 0 0 0 0 0 0 0 0 0 0 6 10 23 26 26 16 19 16 16 16 29
0 0 0 0 0 0 0 0 0 0 0 0 0 0 0 0 0 0 0 0 0 0 0 0 0 0 0 0 0 0 0 0 0 0 6 6 13 16 13 10 10 16 13
0 0 0 0 0 0 0 0 0 0 0 0 0 0 0 0 0 0 0 0 0 0 0 0 0 0 0 0 0 0 0 0 0 0 0 0 6 10 10 10 16 16 16
0 0 0 0 0 0 0 0 0 0 0 0 0 0 0 0 0 0 0 0 0 0 0 0 0 0 0 0 0 0 0 0 0 0 0 0 0 3 3 6 13 13 13
0 0 0 0 0 0 0 0 0 0 0 0 0 0 0 0 0 0 0 0 0 0 0 0 0 0 0 0 0 0 0 0 0 0 0 0 0 0 0 0 0 6 0
0 0 0 0 0 0 0 0 0 0 0 0 0 0 0 0 0 0 0 0 0 0 0 0 0 0 0 0 0 0 0 0 0 0 0 0 0 0 0 0 0 0 0
0 0 0 0 0 0 0 0 0 0 0 0 0 0 0 0 0 0 0 0 0 0 0 0 0 0 0 0 0 0 0 0 0 0 0 0 0 0 0 0 0 0 0
0 0 0 0 0 0 0 0 0 0 0 0 0 0 0 0 0 0 0 0 0 0 0 0 0 0 0 0 0 0 0 0 0 0 0 0 0 0 0 0 0 0 0
0 0 0 0 0 0 0 0 0 0 0 0 0 0 0 0 0 0 0 0 0 0 0 0 0 0 0 0 0 0 0 0 0 0 0 0 0 0 0 0 0 0 0
0 0 0 0 0 0 0 0 0 0 0 0 0 0 0 0 0 0 0 0 0 0 0 0 0 0 0 0 0 0 0 0 0 0 0 0 0 0 0 0 0 0 0
0 0 0 0 0 0 0 0 0 0 0 0 0 0 0 0 0 0 0 0 0 0 0 0 0 0 0 0 0 0 0 0 0 0 0 0 0 0 0 0 0 0 0
0 0 0 0 0 0 0 0 0 0 0 0 0 0 0 0 0 0 0 0 0 0 0 0 0 0 0 0 0 0 0 0 0 0 0 0 0 0 0 0 0 0 0
0 0 0 0 0 0 0 0 0 0 0 0 0 0 0 0 0 0 0 0 0 0 0 0 0 0 0 0 0 0 0 0 0 0 0 0 0 0 0 0 0 0 0
0 0 0 0 0 0 0 0 0 0 0 0 0 0 0 0 0 0 0 0 0 0 0 0 0 0 0 0 0 0 0 0 0 0 0 0 0 0 0 0 0 0 0
3 0 0 0 0 0 0 0 0 0 0 0 0 0 0 0 0 0 0 0 0 0 0 0 0 0 0 0 0 0 0 0 0 0 0 0 0 0 0 0 0 0 0
3 3 3 3 0 0 0 0 0 0 0 0 0 0 0 0 0 0 0 0 0 0 0 0 0 0 0 0 0 0 0 0 0 0 0 0 0 0 0 0 0 0 0
0 3 3 3 3 0 0 0 0 0 0 0 0 0 0 0 0 0 0 0 0 0 0 0 0 0 0 0 0 0 0 0 0 0 0 0 0 0 0 0 0 0 0

GEFSMA_con_cape1000_222.txt.gz
Probability
42 48 42 39 32 35 35 39 35 39 35 32 29 23 23 13 19 13 29 55 55 48 48 42 42 42 55 52 55 61 61 65 61 61 61 55 55 58 58 65 65 71 71
32 29 35 32 29 32 32 29 26 29 32 35 32 26 26 19 23 32 19 35 45 45 42 42 42 39 42 48 48 55 58 61 61 61 55 55 58 52 52 55 61 58 65
29 29 26 29 26 26 29 19 23 26 26 29 29 29 29 23 26 29 29 29 26 26 42 39 39 42 42 48 48 52 55 55 58 58 55 55 55 48 45 45 55 55 58
26 29 26 26 26 29 23 19 19 19 19 19 23 32 26 35 26 26 29 26 26 16 29 32 35 39 42 39 45 55 52 52 52 52 48 48 52 52 45 45 45 52 52
19 23 23 19 26 19 16 13 23 23 19 19 19 26 29 26 29 23 23 23 23 26 19 29 35 35 35 39 39 42 45 45 42 45 42 42 45 55 42 42 39 42 42
16 16 13 16 16 16 23 23 26 26 23 23 10 13 23 23 32 29 26 26 26 16 19 19 29 19 26 35 39 35 35 42 45 42 42 42 45 42 39 39 39 39 35
16 16 10 19 19 16 19 23 26 19 19 23 19 16 10 10 16 23 23 19 13 16 16 23 26 29 23 26 26 32 26 35 39 39 42 39 39 32 39 35 35 32 35
13 10 13 13 19 19 16 13 23 19 23 19 19 10 6 10 19 6 10 19 13 16 16 16 23 26 23 19 6 26 26 32 29 29 39 45 35 35 35 35 39 32 23
10 13 13 13 19 13 19 16 16 16 16 23 19 16 10 10 10 3 0 0 13 19 16 13 13 16 16 19 16 6 10 10 23 26 29 26 29 26 26 26 26 26 23
10 10 13 13 16 19 19 13 6 13 23 19 19 23 13 3 6 3 3 3 16 16 13 6 10 13 16 19 16 6 3 3 6 16 23 19 16 16 19 23 23 23 16
13 13 13 13 19 13 13 13 13 16 19 19 16 16 13 16 6 10 10 6 10 13 10 13 13 13 13 19 23 10 3 0 0 3 6 13 13 16 16 23 19 19 19
13 13 13 16 13 13 13 16 13 13 16 19 19 13 6 6 3 10 6 13 13 3 10 13 16 16 13 19 13 0 0 0 0 0 0 3 3 13 16 13 16 23 19
19 16 16 16 16 13 13 16 16 16 16 19 23 16 13 6 16 10 6 13 10 3 10 3 3 13 3 6 13 0 0 0 0 0 0 0 0 3 3 6 10 13 13
13 13 10 10 13 13 3 10 16 16 16 10 6 19 16 10 10 13 10 13 13 0 13 3 3 0 10 10 6 0 3 0 0 0 0 0 0 0 3 3 3 3 3
6 6 6 6 6 10 6 10 13 13 13 13 13 16 16 13 10 16 23 16 13 6 0 6 3 3 6 13 6 13 13 0 0 0 0 0 0 0 0 0 0 0 0
10 10 6 6 6 6 10 10 6 6 10 6 10 10 13 13 13 13 23 23 19 16 6 0 10 3 10 0 0 10 10 0 0 0 0 0 0 0 0 0 0 0 0
10 6 6 6 3 3 3 6 10 6 3 6 6 6 10 10 13 13 19 19 19 13 10 6 10 6 13 6 6 10 6 10 0 0 0 0 0 0 0 0 0 0 0
10 10 6 3 3 0 0 0 0 0 0 0 3 3 3 3 10 16 19 10 6 16 13 13 13 10 13 10 13 13 3 0 3 0 0 0 0 0 0 0 0 0 0
10 10 10 10 0 0 0 0 0 0 0 0 0 0 0 3 6 6 10 6 3 0 13 16 16 19 16 10 6 6 3 3 0 0 0 0 0 0 0 0 0 0 0
6 6 3 3 3 3 0 0 0 0 3 3 0 0 0 3 3 3 6 6 6 3 6 13 13 13 16 6 6 3 6 6 0 0 0 0 0 0 0 0 0 0 0
3 3 3 3 3 3 3 3 0 0 3 3 3 3 0 0 0 3 0 10 6 13 10 10 10 10 13 10 6 3 6 6 6 3 0 0 0 0 0 0 0 0 0
3 3 3 3 3 3 3 0 0 3 3 6 6 3 3 0 0 0 0 0 0 6 6 3 6 6 10 6 6 6 6 6 0 3 6 0 0 0 3 3 0 0 0
3 6 3 3 3 3 0 0 0 0 0 6 6 6 3 0 0 0 0 0 0 0 0 16 16 10 10 3 6 6 13 6 3 6 3 0 0 0 0 0 0 0 0
3 3 3 3 3 3 0 0 0 0 0 0 6 6 6 6 0 0 0 0 0 0 0 3 10 10 3 10 10 10 10 6 3 6 0 0 0 3 0 0 0 0 0
0 0 0 0 6 6 3 0 0 0 0 0 0 0 3 3 0 0 0 0 0 0 0 0 0 0 0 0 3 3 6 0 0 0 3 0 0 0 0 3 0 0 0
0 0 0 0 3 3 0 0 0 3 3 0 0 0 0 0 0 0 0 0 0 0 0 0 0 0 0 0 0 0 0 0 0 0 3 0 0 0 0 0 0 0 0

GEFSMA_con_cape1000_228.txt.gz
Probability
52 48 48 55 42 39 35 35 29 29 32 23 23 19 16 16 16 23 29 45 52 61 55 48 48 55 55 58 55 55 58 58 58 58 61 58 55 52 52 58 61 61 65
55 52 52 58 42 32 35 35 26 39 32 26 23 19 19 19 19 26 19 45 52 55 52 45 48 58 55 55 61 55 58 55 55 55 55 58 52 52 48 52 58 58 58
35 39 45 48 42 39 39 35 35 35 29 23 23 23 23 16 16 19 26 26 32 45 52 52 55 52 45 45 55 58 58 58 55 55 55 55 55 48 45 45 42 48 55
35 35 39 32 42 35 35 35 35 29 23 23 23 23 19 29 19 23 19 29 32 23 35 45 52 52 52 42 45 52 55 55 55 52 55 52 52 45 42 39 35 42 39
32 35 35 29 35 26 23 19 19 29 26 19 19 23 19 23 26 16 19 19 29 32 23 32 42 45 45 42 42 45 45 45 52 55 48 45 48 42 35 39 35 35 23
26 26 23 26 26 23 23 26 23 29 23 26 6 6 13 19 23 26 19 16 29 32 32 26 29 39 35 42 48 42 35 45 42 52 48 48 45 42 32 26 29 26 23
26 26 16 23 23 19 19 19 19 10 16 13 13 6 16 16 16 19 23 26 23 32 26 29 23 19 19 39 48 45 35 35 39 32 35 42 42 32 29 26 23 23 16
29 10 19 19 26 23 23 26 23 16 10 10 16 13 10 6 13 10 19 23 16 23 26 23 23 19 13 6 10 35 32 32 35 32 32 32 29 32 29 26 19 13 13
26 19 19 16 26 19 19 23 16 10 10 13 10 6 6 3 6 10 10 10 19 26 19 16 19 16 16 10 6 10 23 16 32 32 26 26 26 19 23 26 23 10 10
23 19 16 16 16 19 19 19 16 13 10 10 16 13 16 13 3 6 3 3 10 16 26 10 10 19 19 19 13 3 0 0 10 23 23 23 19 16 16 16 13 16 16
23 13 16 19 19 19 19 16 16 13 10 10 10 10 10 13 10 6 3 3 6 16 19 16 10 13 13 10 10 13 0 0 0 6 13 19 19 13 16 13 16 13 16
16 16 13 29 29 29 19 13 13 13 10 13 16 10 10 13 6 3 3 3 3 10 13 3 6 13 13 6 0 0 0 0 0 0 0 3 10 13 16 13 13 13 13
16 19 13 29 29 35 26 16 13 13 13 13 13 13 13 13 6 10 3 0 0 3 10 10 3 10 3 3 0 0 0 0 0 0 0 0 0 3 6 6 10 10 6
23 16 19 19 16 19 6 10 13 6 6 13 6 10 6 10 10 6 6 3 0 0 3 6 6 6 3 0 6 0 0 0 0 0 0 0 0 0 0 0 0 0 3
19 16 16 19 13 13 16 13 10 10 13 13 10 3 3 6 10 16 13 6 0 0 3 3 0 6 3 3 0 0 0 0 0 0 0 0 0 0 0 0 0 0 0
13 10 10 10 10 10 13 13 10 10 16 16 10 6 3 6 10 13 10 6 6 0 0 3 3 6 3 0 0 0 6 0 0 0 0 0 0 0 0 0 0 0 0
10 13 10 10 10 10 10 16 13 13 10 6 10 3 3 6 6 10 3 3 6 3 0 3 6 13 10 10 3 6 3 0 0 0 0 0 0 0 0 0 0 0 0
10 10 13 13 10 10 13 13 10 6 10 6 10 3 10 3 6 10 10 10 3 3 6 0 0 6 10 10 10 6 6 6 0 0 0 0 0 0 0 0 0 0 0
16 10 6 6 6 6 10 10 10 3 3 6 10 6 3 6 6 13 10 3 3 0 0 0 0 3 6 6 6 3 0 3 0 0 0 0 0 0 0 0 0 0 0
16 10 6 3 3 3 3 3 3 3 3 3 6 6 6 10 6 10 0 6 0 0 3 0 0 3 3 6 3 0 0 6 0 0 0 0 0 0 0 0 0 0 0
3 6 3 3 3 3 3 3 3 3 3 3 6 6 6 3 3 0 0 3 0 0 0 0 3 3 6 6 3 3 0 6 3 0 0 0 0 0 0 0 0 0 0
6 3 6 3 3 3 3 0 0 3 3 6 6 6 6 0 0 0 0 0 0 0 0 0 3 3 3 3 6 3 3 0 0 0 0 0 0 0 0 0 0 0 0
6 6 10 3 10 6 3 0 0 3 6 10 10 6 3 0 0 3 0 0 0 0 3 3 3 3 3 3 6 3 3 0 0 0 0 0 0 0 0 0 0 0 0
6 10 3 3 6 3 0 0 0 3 3 6 10 6 3 3 0 0 3 0 3 3 0 3 3 3 3 3 6 6 10 3 0 0 0 0 0 0 0 0 0 0 0
13 13 6 6 3 3 0 0 0 0 0 0 6 0 3 3 3 0 0 3 0 3 0 0 0 0 0 0 6 0 0 0 0 0 0 0 0 0 0 0 0 0 0
10 10 6 6 13 10 0 0 0 0 0 0 0 0 0 0 0 0 0 0 0 0 0 0 0 0 0 0 0 0 0 0 0 0 0 0 0 0 0 0 0 0 0

GEFSMA_con_cape1000_234.txt.gz
Probability
13 10 13 13 13 19 16 19 16 19 19 19 16 16 13 13 10 3 3 35 39 48 48 52 52 52 55 61 58 58 58 55 52 48 48 48 42 48 52 52 58 52 55
6 6 6 6 6 10 13 13 13 16 13 13 13 16 13 6 6 6 10 19 42 48 52 48 48 52 55 55 61 58 58 58 55 55 45 42 45 42 42 48 52 52 55
0 3 3 6 6 10 10 13 13 13 13 13 10 10 6 6 3 6 6 16 19 32 42 45 55 55 48 52 55 55 55 55 55 55 52 42 42 39 35 35 35 35 45
0 0 3 3 6 6 6 10 6 3 3 3 3 0 0 0 0 0 6 6 6 10 26 42 45 52 55 55 52 55 52 58 55 55 48 39 35 35 32 29 32 29 32
6 3 3 3 3 6 3 3 6 0 0 0 0 0 0 0 0 0 0 0 0 3 3 19 35 48 48 52 52 52 52 52 52 45 45 45 42 39 39 23 23 23 26
6 3 3 0 3 3 3 0 0 0 0 0 0 0 0 0 0 0 0 0 0 0 3 6 19 23 35 45 55 48 45 42 45 45 45 45 42 35 23 19 19 19 19
6 3 3 3 6 3 3 3 0 0 0 0 0 0 0 0 0 0 0 0 0 0 0 3 3 6 10 32 42 45 42 45 39 45 32 39 35 32 23 23 19 19 19
6 6 3 3 6 6 3 3 0 0 0 0 0 0 0 0 0 0 0 0 0 3 0 0 0 0 0 3 10 32 42 35 35 35 35 26 26 23 13 16 16 13 10
6 6 6 3 3 3 6 3 3 0 0 0 0 0 0 0 0 0 0 0 0 0 0 0 0 0 0 0 3 3 26 26 32 32 32 26 23 16 16 16 13 16 13
3 3 3 3 0 0 0 0 0 0 0 0 0 0 0 0 0 0 0 0 0 0 0 0 0 0 0 0 0 3 6 6 19 29 26 26 23 23 16 16 13 10 10
3 3 3 3 0 0 0 0 0 0 0 0 0 0 0 0 0 0 0 0 0 0 0 0 0 0 0 0 0 0 3 3 6 10 13 23 19 16 16 16 10 10 10
0 0 3 3 3 0 0 0 0 0 0 0 0 0 0 0 0 0 0 0 0 0 0 0 0 0 0 0 0 0 0 0 0 3 3 10 13 16 19 16 16 13 13
3 3 3 3 0 0 0 0 0 0 0 0 0 0 0 0 0 0 0 0 0 0 0 0 0 0 0 0 0 0 0 0 0 0 0 0 10 10 10 13 16 16 10
3 3 3 3 3 0 0 0 0 0 0 0 0 0 0 0 0 0 0 0 0 0 0 0 0 0 0 0 0 0 0 0 0 0 0 0 0 0 0 0 0 0 0
3 3 3 3 3 3 3 0 0 0 0 0 0 0 0 0 0 0 0 0 0 0 0 0 0 0 0 0 0 0 0 0 0 0 0 0 0 0 0 0 0 0 0
3 3 3 3 3 3 3 0 0 0 0 0 0 0 0 0 0 0 0 0 0 0 0 0 0 0 0 0 0 0 0 0 0 0 0 0 0 0 0 0 0 0 0
0 0 0 0 0 0 0 0 0 0 0 0 0 0 0 0 0 0 0 0 0 0 0 0 0 0 0 0 0 0 0 0 0 0 0 0 0 0 0 0 0 0 0
0 0 0 0 0 0 0 0 0 0 0 0 0 0 0 0 0 0 0 0 0 0 0 0 0 0 0 0 0 0 0 0 0 0 0 0 0 0 0 0 0 0 0
0 0 0 0 0 0 0 0 0 0 0 0 0 0 0 0 0 0 0 0 0 0 0 0 0 0 0 0 0 0 0 0 0 0 0 0 0 0 0 0 0 0 0
0 0 0 0 0 0 0 0 0 0 0 0 0 0 0 0 0 0 0 0 0 0 0 0 0 0 0 0 0 0 0 0 0 0 0 0 0 0 0 0 0 0 0
0 0 0 0 0 0 0 0 0 0 0 0 0 0 0 0 0 0 0 0 0 0 0 0 0 0 0 0 0 0 0 0 0 0 0 0 0 0 0 0 0 0 0
0 0 0 0 0 0 0 0 0 0 0 0 0 0 0 0 0 0 0 0 0 0 0 0 0 0 0 0 0 0 0 0 0 0 0 0 0 0 0 0 0 0 0
0 0 0 0 0 0 0 0 0 0 0 0 0 0 0 0 0 0 0 0 0 0 0 0 0 0 0 0 0 0 0 0 0 0 0 0 0 0 0 0 0 0 0
0 0 0 0 0 0 0 0 0 0 0 0 0 0 0 0 0 0 0 0 0 0 0 0 0 0 0 0 0 0 0 0 0 0 0 0 0 0 0 0 0 0 0
0 0 0 0 0 0 0 0 0 0 0 0 0 0 0 0 0 0 0 0 0 0 0 0 0 0 0 0 0 0 0 0 0 0 0 0 0 0 0 0 0 0 0
0 0 0 0 0 0 0 0 0 0 0 0 0 0 0 0 0 0 0 0 0 0 0 0 0 0 0 0 0 0 0 0 0 0 0 0 0 0 0 0 0 0 0

GEFSMA_con_cape1000_240.txt.gz
Probability
6 6 13 13 13 13 19 19 19 16 23 19 13 13 13 13 13 10 6 16 35 35 39 35 42 52 58 52 48 48 55 52 52 52 45 45 48 52 55 52 55 52 52
3 6 3 6 13 13 16 16 16 10 13 16 13 13 13 13 13 10 10 10 29 35 42 39 48 48 52 48 52 45 55 48 55 55 55 48 48 42 48 45 42 39 39
3 3 3 3 6 10 13 16 16 10 6 13 13 13 10 13 13 10 10 10 19 29 42 39 45 52 52 45 48 48 45 52 48 52 55 48 48 39 32 29 39 35 42
3 3 0 3 3 3 6 13 10 6 6 6 6 10 10 10 10 6 10 10 10 10 26 35 35 48 42 42 42 45 42 48 52 52 45 45 45 35 35 32 23 29 29
0 0 0 0 0 0 3 3 6 6 6 6 6 6 6 6 6 3 3 6 10 6 13 16 35 39 45 42 39 48 52 48 48 39 39 42 42 35 35 26 23 26 23
3 3 3 3 0 0 0 3 3 3 6 6 6 3 3 3 3 0 0 3 6 6 6 10 16 23 39 45 42 48 45 48 42 45 42 39 35 32 29 19 16 13 13
3 0 0 0 0 0 0 0 0 0 0 0 3 3 3 3 0 0 0 3 3 3 6 6 10 13 16 23 35 39 42 35 42 48 45 39 29 19 26 23 16 13 13
0 0 0 0 0 0 0 0 0 0 0 0 0 0 0 0 0 0 0 0 0 0 6 6 6 6 10 10 13 26 42 42 39 42 45 35 29 23 23 16 16 13 10
0 0 0 0 0 0 3 0 0 0 0 0 0 0 0 0 0 0 0 0 0 0 0 3 3 3 0 3 3 3 6 6 29 32 39 35 23 23 23 19 16 13 10
3 0 0 0 3 3 3 3 3 0 0 0 0 0 0 0 0 0 0 0 0 0 0 0 0 0 0 0 0 0 0 0 0 23 32 29 23 26 19 16 16 16 13
3 3 3 3 3 3 3 3 3 3 0 0 0 0 0 0 0 0 0 0 0 0 0 0 0 0 0 0 0 0 0 0 0 0 10 23 19 16 19 13 16 13 13
0 3 3 3 3 3 3 3 3 3 3 3 3 0 0 0 0 0 0 0 0 0 0 0 0 0 0 0 0 0 0 0 0 0 0 3 6 13 16 23 19 16 16
0 0 0 0 3 3 3 3 3 3 3 0 3 3 0 0 0 0 0 0 0 0 0 0 0 0 0 0 0 0 0 0 0 0 0 0 0 3 6 6 16 13 13
3 3 3 0 0 0 0 3 3 3 3 3 3 3 3 0 0 0 0 0 0 0 0 0 0 0 0 0 0 0 0 0 0 0 0 0 0 0 0 0 3 3 0
3 3 3 3 3 3 3 3 3 3 3 3 3 3 3 0 0 0 0 0 0 0 0 0 0 0 0 0 0 0 0 0 0 0 0 0 0 0 0 0 0 0 0
0 0 0 0 0 0 0 0 0 0 3 3 3 3 0 0 0 0 0 0 0 0 0 0 0 0 0 0 0 0 0 0 0 0 0 0 0 0 0 0 0 0 0
0 0 0 0 0 0 0 0 0 0 0 0 0 0 0 0 0 0 0 0 0 0 0 0 0 0 0 0 0 0 0 0 0 0 0 0 0 0 0 0 0 0 0
0 0 0 0 0 0 0 0 0 0 0 0 0 0 0 0 0 0 0 0 0 0 0 0 0 0 0 0 0 0 0 0 0 0 0 0 0 0 0 0 0 0 0
0 0 0 0 0 0 0 0 0 0 0 0 0 0 0 0 0 0 0 0 0 0 0 0 0 0 0 0 0 0 0 0 0 0 0 0 0 0 0 0 0 0 0
0 0 0 0 0 0 0 0 0 0 0 0 0 0 0 0 0 0 0 0 0 0 0 0 0 0 0 0 0 0 0 0 0 0 0 0 0 0 0 0 0 0 0
0 0 0 0 0 0 0 0 0 0 0 0 0 0 0 0 0 0 0 0 0 0 0 0 0 0 0 0 0 0 0 0 0 0 0 0 0 0 0 0 0 0 0
0 0 0 0 0 0 0 0 0 0 0 0 0 0 0 0 0 0 0 0 0 0 0 0 0 0 0 0 0 0 0 0 0 0 0 0 0 0 0 0 0 0 0
0 0 0 0 0 0 0 0 0 0 0 0 0 0 0 0 0 0 0 0 0 0 0 0 0 0 0 0 0 0 0 0 0 0 0 0 0 0 0 0 0 0 0
0 0 0 0 0 0 0 0 0 0 0 0 0 0 0 0 0 0 0 0 0 0 0 0 0 0 0 0 0 0 0 0 0 0 0 0 0 0 0 0 0 0 0
0 0 0 0 0 0 0 0 0 0 0 0 0 0 0 0 0 0 0 0 0 0 0 0 0 0 0 0 0 0 0 0 0 0 0 0 0 0 0 0 0 0 0
0 0 0 0 0 0 0 0 0 0 0 0 0 0 0 0 0 0 0 0 0 0 0 0 0 0 0 0 0 0 0 0 0 0 0 0 0 0 0 0 0 0 0

GEFSMA_con_cape1000_246.txt.gz
Probability
26 23 23 39 42 35 39 32 35 35 35 29 23 16 16 23 23 23 29 35 26 29 26 32 45 61 58 52 58 58 58 52 52 52 55 45 42 45 45 55 58 45 52
23 29 45 42 35 32 29 29 29 39 32 29 26 26 23 19 19 23 23 29 29 32 32 35 45 52 48 48 58 58 55 52 55 48 45 39 42 29 35 42 45 39 39
29 35 42 35 35 39 29 39 42 35 35 32 23 23 23 23 19 23 19 23 23 19 39 35 42 48 48 48 48 52 48 52 52 48 45 35 35 32 32 29 32 32 32
42 42 35 32 39 35 39 39 39 32 32 26 23 26 26 26 23 23 23 19 19 19 23 32 39 39 35 45 48 52 52 48 45 45 45 35 32 39 32 39 29 23 26
32 39 32 35 39 32 32 26 29 32 32 26 23 23 23 23 23 19 16 23 32 26 19 19 29 29 26 32 39 45 48 48 52 48 45 39 35 32 32 35 29 23 26
29 32 32 35 29 23 23 29 26 32 29 29 13 16 23 23 23 16 16 19 29 19 23 16 23 23 26 32 39 35 45 48 55 55 52 42 39 29 29 26 23 16 23
26 35 26 35 26 19 23 19 23 23 26 26 19 16 19 19 19 23 26 23 16 16 29 26 16 19 23 26 35 35 35 35 42 52 52 45 39 32 29 26 26 19 13
19 16 26 19 19 26 19 19 26 19 16 19 19 19 13 13 29 10 23 23 19 26 19 23 26 19 19 26 19 26 26 35 35 32 39 42 35 35 29 26 23 19 13
16 23 19 19 13 13 13 23 23 13 13 13 10 10 10 6 13 13 19 16 19 23 23 29 19 23 16 26 19 10 19 13 29 32 32 35 29 32 26 26 23 23 16
16 19 19 19 13 13 23 23 16 16 10 13 16 16 19 16 13 13 23 19 23 16 23 10 13 16 16 10 10 3 3 0 13 23 26 32 26 23 26 23 26 19 23
19 16 16 13 13 16 16 13 16 13 13 13 16 13 13 23 19 23 13 16 16 23 23 26 16 16 10 13 13 6 3 0 0 0 10 19 26 23 23 29 19 19 23
19 10 6 10 13 19 19 23 13 13 6 16 16 16 10 10 10 13 16 16 16 16 13 16 10 6 10 10 6 0 0 0 0 0 0 0 16 19 23 19 29 23 16
19 19 6 13 13 13 10 19 19 10 13 13 19 16 16 16 19 19 19 13 10 10 10 10 3 10 6 10 10 0 0 0 0 0 0 0 0 6 13 13 16 19 16
19 23 16 19 13 13 3 13 16 16 16 16 13 23 19 16 19 16 16 13 6 10 10 13 6 3 6 10 3 0 0 0 0 0 0 0 0 0 3 3 10 6 6
13 13 19 16 13 10 3 16 16 16 13 16 16 16 10 10 10 3 10 3 10 3 6 6 3 3 10 6 3 3 6 0 0 0 0 0 0 0 0 0 0 0 0
6 6 10 10 13 10 13 16 13 10 19 19 19 19 19 13 19 13 13 6 6 10 3 3 6 3 6 0 0 0 6 0 0 0 0 0 0 0 0 0 0 0 0
6 6 6 6 6 10 6 13 10 10 16 16 13 13 16 16 19 13 6 6 6 10 0 3 3 6 6 3 3 3 3 10 0 0 0 0 0 0 0 0 0 0 0
13 6 6 6 6 6 6 10 10 3 6 10 13 13 10 10 16 13 13 10 10 6 3 3 6 3 3 3 3 3 3 3 3 0 0 0 0 0 0 0 0 0 0
10 6 3 3 3 3 6 6 6 6 10 10 6 6 6 6 10 10 10 3 6 3 3 3 3 3 0 0 3 0 3 6 6 0 0 0 0 0 0 0 0 0 0
10 6 3 6 6 6 10 6 6 3 10 3 0 0 0 6 6 6 0 6 3 6 3 0 0 3 3 6 0 0 3 10 3 0 0 0 0 0 0 0 0 0 0
10 10 13 10 10 10 3 10 3 0 3 3 3 0 0 0 0 0 0 3 3 3 3 3 0 0 0 3 0 0 0 0 6 3 10 3 0 0 0 0 0 0 0
10 10 13 6 3 0 0 0 0 3 0 0 3 0 0 0 0 0 0 0 0 0 3 3 6 3 6 3 6 3 3 0 3 3 6 3 3 6 6 3 0 0 0
6 10 6 6 3 0 0 0 0 0 0 6 6 10 0 0 0 0 0 0 0 0 0 0 6 6 6 10 10 10 13 3 6 6 10 3 3 3 0 0 0 0 0
13 13 10 6 6 0 0 0 0 0 0 0 3 3 6 6 0 0 0 0 0 0 0 0 13 10 6 10 13 13 10 13 16 16 6 3 3 0 0 6 0 0 0
19 16 10 10 6 0 0 0 0 0 3 6 6 3 6 6 0 0 0 0 0 6 0 0 0 0 0 0 0 0 3 6 0 10 10 3 10 3 10 6 0 0 0
16 13 3 6 6 0 0 0 0 0 0 3 10 10 0 0 0 0 0 0 0 0 0 0 0 0 0 0 0 3 6 6 0 3 6 6 6 6 0 3 6 3 0

GEFSMA_con_cape1000_252.txt.gz
Probability
45 42 45 52 35 45 42 52 42 29 26 26 19 13 13 10 13 23 16 55 58 55 48 35 35 48 48 55 61 58 58 55 58 52 45 45 39 42 39 45 42 39 39
45 42 55 58 45 45 42 48 39 42 39 35 35 26 23 23 29 26 16 32 45 45 42 42 42 42 39 58 61 61 58 58 58 55 45 42 42 42 35 39 42 29 32
48 48 45 61 55 35 39 42 42 42 35 32 35 32 29 23 19 23 13 32 32 39 48 42 48 52 48 52 55 58 58 58 55 52 48 42 39 32 39 35 26 26 26
39 42 48 52 52 35 35 39 35 32 32 39 35 29 23 39 26 19 16 19 19 16 29 42 48 42 42 55 52 55 58 58 58 52 45 48 39 32 35 26 19 23 23
39 39 45 52 45 39 35 23 39 39 32 29 32 32 29 35 39 13 16 19 23 29 23 23 35 45 45 45 48 55 55 52 58 55 48 48 42 35 29 23 23 23 19
39 35 42 45 42 39 32 32 29 32 29 32 13 6 23 26 35 23 16 13 32 16 16 13 13 23 35 48 48 52 48 45 52 52 48 42 42 29 26 23 23 23 19
39 39 29 42 39 39 35 26 23 26 32 39 26 19 26 19 26 26 19 19 23 16 16 19 16 16 13 39 45 45 45 42 45 52 48 45 39 29 32 26 19 23 16
32 26 26 29 32 35 26 26 26 29 32 19 19 3 3 13 19 10 26 29 23 19 16 16 19 29 23 16 13 29 35 32 42 42 42 32 29 29 26 23 23 19 19
29 26 26 23 29 29 29 29 26 26 19 19 19 10 3 6 6 16 19 16 26 26 13 16 19 23 23 23 13 23 26 19 29 32 29 23 19 23 23 26 23 19 16
29 23 26 23 26 23 26 19 16 29 23 19 13 16 19 16 6 6 10 10 19 16 16 13 19 16 16 16 13 6 6 6 13 23 23 23 23 23 23 23 23 23 23
26 19 23 23 23 29 26 19 29 23 29 19 16 23 16 16 10 10 10 6 13 10 13 19 13 16 16 16 19 6 6 3 3 10 10 16 19 26 26 26 26 23 26
23 23 19 29 29 32 32 29 32 26 26 29 23 29 16 13 10 10 6 6 3 6 6 16 23 19 10 10 6 3 3 0 0 0 0 3 10 13 19 26 19 26 32
26 29 23 26 32 35 32 39 32 26 29 23 29 29 26 26 23 16 6 3 6 13 10 6 10 10 0 3 0 0 0 0 0 0 0 0 0 0 10 13 16 26 26
23 26 26 32 32 32 19 35 29 26 29 23 16 19 23 19 23 16 16 13 6 10 10 6 10 10 6 0 0 0 0 0 0 0 0 0 0 0 0 0 0 0 3
23 23 26 23 26 26 23 32 26 23 29 29 19 19 23 16 23 13 16 10 3 0 3 6 6 13 10 13 0 0 0 0 0 0 0 0 0 0 0 0 0 0 0
26 23 23 23 23 23 26 32 29 29 32 29 23 23 19 13 13 16 16 16 10 3 3 6 6 6 13 0 0 3 6 0 0 0 0 0 0 0 0 0 0 0 0
26 23 23 19 23 19 29 29 29 23 19 23 16 13 10 13 13 13 13 13 10 13 10 6 10 16 10 3 3 10 0 0 0 0 0 0 0 0 0 0 0 0 0
23 13 16 13 13 16 19 23 19 13 13 10 3 6 6 6 6 13 16 13 13 6 10 3 3 6 10 10 10 6 3 0 0 0 0 0 0 0 0 0 0 0 0
13 16 13 6 13 16 19 19 16 10 3 3 3 10 13 13 13 16 13 16 13 3 10 3 6 3 6 6 6 3 3 3 3 0 0 0 0 0 0 0 0 0 0
13 13 10 10 10 13 19 19 10 13 13 10 10 6 6 6 10 6 6 6 6 6 3 0 3 6 10 6 3 3 3 3 3 0 0 0 0 0 0 0 0 0 0
6 6 6 10 6 6 6 10 10 3 16 10 6 10 10 3 0 0 0 0 6 6 6 3 0 3 3 3 3 3 3 6 3 3 0 0 0 0 0 0 0 0 0
10 13 10 3 3 3 3 0 0 13 6 10 6 6 10 0 0 0 0 0 0 3 3 3 3 3 3 3 0 0 3 3 3 6 3 3 0 0 0 0 0 0 0
19 19 16 10 6 3 3 0 0 0 10 6 10 6 0 0 0 3 0 0 0 0 0 3 0 0 3 3 3 3 3 6 6 6 6 3 3 3 0 0 0 0 0
13 23 16 16 19 6 0 0 0 0 0 3 6 10 10 6 3 0 0 0 3 3 0 0 0 3 3 3 3 0 3 3 6 6 3 3 3 3 0 0 0 0 0
23 19 13 13 13 6 0 0 0 0 0 3 3 3 3 6 0 0 0 3 3 3 0 0 0 0 0 0 0 0 0 0 0 0 6 3 3 3 0 3 0 0 0
23 16 13 19 16 10 3 0 0 0 3 3 3 0 0 0 0 0 0 0 3 3 3 0 0 0 0 0 0 0 0 0 0 0 3 3 0 3 0 0 0 0 0

GEFSMA_con_cape1000_258.txt.gz
Probability
3 3 0 6 6 6 6 6 6 10 6 6 3 3 3 3 6 3 3 42 58 58 58 58 55 52 52 52 52 55 58 58 61 65 58 52 45 42 42 42 42 35 35
3 3 3 6 3 3 3 3 10 6 3 3 3 3 3 3 3 3 3 16 48 45 58 52 48 45 48 48 48 55 52 58 58 58 55 52 48 45 45 39 32 29 32
3 3 3 6 6 6 6 6 3 3 3 3 3 3 6 3 3 3 3 6 10 29 42 52 55 52 42 48 48 48 52 55 55 52 52 52 48 35 35 35 29 29 29
10 6 6 3 3 6 6 3 3 3 3 3 3 3 3 3 3 3 3 6 6 6 13 35 45 48 48 45 52 52 52 52 48 52 45 45 48 39 35 29 29 29 26
13 10 10 6 6 6 3 3 3 3 3 3 3 3 3 3 3 3 3 3 3 3 3 10 29 32 39 42 35 42 52 48 48 52 55 45 42 42 26 23 23 29 26
13 10 10 10 10 6 3 3 3 3 3 0 0 0 0 0 0 0 0 0 0 3 3 3 6 23 32 42 45 42 42 39 45 48 45 48 42 35 26 23 23 23 19
13 10 6 10 13 13 6 3 0 0 0 0 0 0 0 0 0 0 0 0 0 0 0 0 3 6 6 32 32 42 42 42 45 45 45 39 42 35 32 23 19 13 13
6 6 6 13 10 6 3 0 0 0 0 0 0 0 0 0 0 0 0 0 0 0 0 0 0 3 3 3 13 29 39 42 42 42 42 39 32 29 32 26 19 16 10
6 6 0 3 3 6 6 0 0 0 0 0 0 0 0 0 0 3 3 3 0 0 0 0 0 0 0 0 3 10 23 23 29 35 29 23 16 19 19 23 19 16 16
6 6 3 3 3 6 6 6 3 3 3 0 0 0 0 0 0 0 0 3 3 3 3 0 0 0 0 0 0 0 6 3 16 23 16 16 19 16 16 16 16 13 13
6 6 3 3 3 3 3 3 3 3 3 3 3 3 0 0 0 3 0 0 0 0 0 0 0 0 0 0 0 0 0 0 0 3 6 13 16 16 13 16 10 10 19
10 3 3 3 3 3 3 6 3 3 3 3 3 3 3 3 3 0 0 0 0 0 0 0 0 0 0 0 0 0 0 0 0 0 0 6 6 6 6 10 10 13 13
13 3 3 3 3 3 3 3 3 3 0 0 0 0 0 0 0 0 0 0 0 0 0 0 0 0 0 0 0 0 0 0 0 0 0 3 3 6 6 6 10 10 13
13 13 3 3 3 3 3 3 3 0 0 0 0 0 0 0 0 0 0 0 0 0 0 0 0 0 0 0 0 0 0 0 0 0 0 0 0 0 0 0 3 3 3
13 6 6 0 0 0 0 0 0 0 0 0 0 0 0 0 0 0 0 0 0 0 0 0 0 0 0 0 0 0 0 0 0 0 0 0 0 0 0 0 0 0 0
3 3 3 0 0 0 0 0 0 0 0 0 0 0 0 0 0 0 0 0 0 0 0 0 0 0 0 0 0 0 0 0 0 0 0 0 0 0 0 0 0 0 0
6 3 3 3 0 0 0 0 0 0 0 0 0 0 0 0 0 0 0 0 0 0 0 0 0 0 0 0 0 0 0 0 0 0 0 0 0 0 0 0 0 0 0
6 6 3 0 0 0 0 0 0 0 0 0 0 0 0 0 0 0 0 0 0 0 0 0 0 0 0 0 0 0 0 0 0 0 0 0 0 0 0 0 0 0 0
6 6 6 0 0 3 0 0 0 0 0 0 0 0 0 0 0 0 0 0 0 0 0 0 0 0 0 0 0 0 0 0 0 0 0 0 0 0 0 0 0 0 0
3 3 0 0 0 3 3 3 0 0 0 0 0 0 0 0 0 0 0 0 0 0 0 0 0 0 0 0 0 0 0 0 0 0 0 0 0 0 0 0 0 0 0
3 0 0 0 0 0 0 0 0 0 0 0 0 0 0 0 0 0 0 0 0 0 0 0 0 0 0 0 0 0 0 0 0 0 0 0 0 0 0 0 0 0 0
0 0 0 0 0 0 0 0 0 0 0 0 0 0 0 0 0 0 0 0 0 0 0 0 0 0 0 0 0 0 0 0 0 0 0 0 0 0 0 0 0 0 0
0 0 0 0 0 0 0 0 0 0 0 0 0 0 0 0 0 0 0 0 0 0 0 0 0 0 0 0 0 0 0 0 0 0 0 0 0 0 0 0 0 0 0
0 0 0 0 0 0 0 0 0 0 0 0 0 0 0 0 0 0 0 0 0 0 0 0 0 0 0 0 0 0 0 0 0 0 0 0 0 0 0 0 0 0 0
0 0 0 0 0 0 0 0 0 0 0 0 0 0 0 0 0 0 0 0 0 0 0 0 0 0 0 0 0 0 0 0 0 0 0 0 0 0 0 0 0 0 0
0 0 0 0 0 0 0 0 0 0 0 0 0 0 0 0 0 0 0 0 0 0 0 0 0 0 0 0 0 0 0 0 0 0 0 0 0 0 0 0 0 0 0

GEFSMA_con_cape1000_264.txt.gz
Probability
6 3 3 0 6 10 10 6 10 13 16 13 6 6 3 3 3 10 10 23 39 52 55 55 58 52 55 48 52 52 48 52 55 55 45 42 48 45 45 35 35 26 29
6 0 0 0 0 3 3 6 6 10 10 3 6 6 3 3 3 3 10 10 26 39 45 48 45 52 55 48 48 45 48 52 52 45 42 45 39 42 39 35 32 26 26
0 0 0 0 0 0 3 6 6 3 3 3 6 6 6 3 3 3 6 13 16 26 39 42 48 45 48 48 42 42 45 45 52 52 45 39 39 32 26 32 26 23 23
0 0 0 0 0 3 3 3 3 3 3 3 3 6 6 3 3 0 0 6 10 6 16 23 32 39 42 39 42 35 45 39 45 45 42 42 35 32 19 23 26 26 23
3 3 3 3 3 3 3 3 3 3 3 3 3 0 0 3 3 0 0 0 3 3 6 10 19 26 29 32 29 29 39 48 48 45 39 39 39 35 29 26 19 19 19
6 3 6 6 3 3 3 3 3 0 0 0 0 0 0 0 0 0 0 0 0 3 3 3 6 6 19 29 32 32 32 35 45 45 42 39 39 35 26 26 16 16 10
10 10 10 6 3 3 3 3 0 0 0 0 3 3 0 0 0 0 3 3 3 0 3 3 6 6 10 10 19 32 32 32 32 39 35 35 39 32 26 26 16 13 10
10 6 6 6 6 10 3 3 0 0 0 0 0 0 0 0 0 0 3 3 3 3 3 3 3 6 6 10 6 16 26 32 29 29 29 26 16 19 19 19 16 13 10
6 3 3 3 3 6 3 0 0 0 0 0 0 0 0 0 0 0 0 6 3 0 3 3 0 6 3 3 6 10 13 10 19 23 29 29 16 19 19 19 19 16 10
6 3 3 3 3 0 0 0 0 0 0 0 0 0 0 0 0 3 0 3 6 6 3 3 3 0 0 0 0 0 3 0 10 16 23 23 16 16 16 19 19 19 13
3 3 0 0 0 0 0 0 0 0 0 0 0 0 0 0 0 3 0 0 0 3 3 3 3 0 0 0 0 0 0 0 0 0 0 6 6 10 13 19 19 19 16
0 0 0 0 0 3 3 3 3 3 3 3 0 0 0 0 0 0 0 0 0 0 0 0 3 3 0 0 0 0 0 0 0 0 0 0 0 3 10 13 16 19 10
3 3 3 0 0 3 3 3 3 3 3 3 0 0 0 0 0 0 0 0 0 0 0 0 0 0 0 0 0 0 0 0 0 0 0 0 0 0 3 6 6 3 6
10 6 3 3 3 3 3 3 3 3 0 0 0 0 0 0 0 0 0 0 0 0 0 0 0 0 0 0 0 0 0 0 0 0 0 0 0 0 0 0 0 0 0
10 6 3 3 3 3 3 3 3 0 0 0 0 0 0 0 0 0 0 0 0 0 0 0 0 0 0 0 0 0 0 0 0 0 0 0 0 0 0 0 0 0 0
3 3 0 0 0 0 0 0 0 0 0 0 0 0 0 0 0 0 0 0 0 0 0 0 0 0 0 0 0 0 0 0 0 0 0 0 0 0 0 0 0 0 0
3 3 3 0 0 0 0 0 0 0 0 0 0 0 0 0 0 0 0 0 0 0 0 0 0 0 0 0 0 0 0 0 0 0 0 0 0 0 0 0 0 0 0
6 3 3 3 0 0 0 0 0 0 0 0 0 0 0 0 0 0 0 0 0 0 0 0 0 0 0 0 0 0 0 0 0 0 0 0 0 0 0 0 0 0 0
3 3 3 3 3 0 0 0 0 0 0 0 0 0 0 0 0 0 0 0 0 0 0 0 0 0 0 0 0 0 0 0 0 0 0 0 0 0 0 0 0 0 0
3 3 3 3 3 0 0 0 0 0 0 0 0 0 0 0 0 0 0 0 0 0 0 0 0 0 0 0 0 0 0 0 0 0 0 0 0 0 0 0 0 0 0
3 3 3 3 0 0 0 0 0 0 0 0 0 0 0 0 0 0 0 0 0 0 0 0 0 0 0 0 0 0 0 0 0 0 0 0 0 0 0 0 0 0 0
0 3 0 0 0 0 0 0 0 0 0 0 0 0 0 0 0 0 0 0 0 0 0 0 0 0 0 0 0 0 0 0 0 0 0 0 0 0 0 0 0 0 0
0 0 0 0 0 0 0 0 0 0 0 0 0 0 0 0 0 0 0 0 0 0 0 0 0 0 0 0 0 0 0 0 0 0 0 0 0 0 0 0 0 0 0
0 0 0 0 0 0 0 0 0 0 0 0 0 0 0 0 0 0 0 0 0 0 0 0 0 0 0 0 0 0 0 0 0 0 0 0 0 0 0 0 0 0 0
0 0 0 0 0 0 0 0 0 0 0 0 0 0 0 0 0 0 0 0 0 0 0 0 0 0 0 0 0 0 0 0 0 0 0 0 0 0 0 0 0 0 0
0 0 0 0 0 0 0 0 0 0 0 0 0 0 0 0 0 0 0 0 0 0 0 0 0 0 0 0 0 0 0 0 0 0 0 0 0 0 0 0 0 0 0

GEFSMA_con_cape1000_270.txt.gz
Probability
42 29 42 48 39 29 32 29 23 23 19 16 16 19 19 19 16 19 23 32 26 29 32 35 42 35 42 48 55 48 52 48 48 42 48 45 39 42 35 32 29 26 23
42 35 35 35 35 32 26 29 26 29 26 23 16 19 19 19 26 26 19 19 32 29 32 39 35 35 39 45 52 52 48 42 48 45 42 39 42 42 32 32 26 23 23
32 32 35 35 35 32 32 29 32 29 29 23 19 19 19 19 23 23 26 32 26 26 26 32 32 35 39 42 45 42 48 42 45 42 35 39 39 32 29 32 26 29 23
32 39 32 23 29 39 35 32 39 32 23 23 29 29 26 35 32 29 26 26 23 19 23 26 29 26 23 29 35 35 39 39 35 39 35 35 35 39 29 26 26 26 19
42 29 29 32 35 35 42 26 16 42 32 29 29 29 19 23 32 16 23 19 23 19 16 13 19 23 19 23 23 29 26 29 35 39 39 35 35 35 35 23 29 26 29
39 32 32 32 32 39 39 39 35 45 42 42 13 10 16 16 16 23 19 19 26 16 13 13 19 13 19 19 19 23 26 35 26 29 29 29 32 29 29 23 23 23 23
42 42 26 42 42 35 45 32 32 29 32 26 23 10 16 13 16 19 16 13 10 13 16 16 19 23 19 10 16 19 23 32 29 26 26 32 29 26 26 26 23 16 16
45 39 39 35 39 45 42 42 45 35 23 23 19 16 10 6 16 10 16 16 19 16 16 19 19 29 19 19 10 13 13 13 23 19 23 29 29 23 23 23 23 19 13
42 42 42 32 42 32 35 48 45 42 19 19 16 10 10 6 10 13 13 13 16 23 19 19 19 23 23 23 16 3 10 10 19 13 16 26 29 26 23 23 23 16 16
39 35 35 35 39 32 39 35 32 32 35 16 19 19 10 10 16 13 16 13 16 19 23 13 13 23 26 23 16 3 3 3 10 13 13 19 23 23 23 23 23 19 16
32 29 35 32 35 32 32 35 35 23 26 19 10 10 16 26 6 10 13 10 13 16 16 19 19 23 16 23 23 16 0 0 0 0 6 10 16 16 16 19 19 19 19
32 26 23 26 26 26 39 39 39 26 26 26 23 13 10 13 13 13 16 16 13 10 16 23 23 19 16 19 16 3 0 0 0 0 0 3 6 13 10 10 13 13 16
29 39 19 29 19 32 29 35 39 26 23 29 26 23 13 10 13 13 16 16 13 10 16 19 16 16 13 19 23 3 0 0 0 0 0 0 0 3 6 6 6 10 13
23 29 23 26 26 23 16 23 29 23 35 32 13 23 23 13 6 10 13 6 10 3 10 13 16 16 16 19 16 0 10 0 0 0 0 0 0 0 0 6 6 3 3
19 19 19 16 19 19 19 23 19 26 29 29 19 26 26 19 19 16 16 19 16 10 3 13 13 19 16 26 10 16 19 3 0 0 0 0 0 0 0 0 0 0 0
13 16 13 10 10 10 13 16 16 13 19 26 26 29 23 19 19 19 19 13 13 10 6 6 10 10 19 3 3 19 23 3 0 0 0 0 0 0 0 0 0 0 0
16 13 6 10 10 13 13 16 13 13 13 16 19 16 19 16 16 10 16 10 13 13 13 10 6 10 10 13 13 19 16 19 3 0 0 0 0 0 0 0 0 0 0
10 6 6 6 6 10 10 10 13 13 13 16 13 19 6 6 19 13 16 6 10 16 10 6 6 10 13 16 16 23 16 6 10 0 0 0 0 0 0 0 0 0 0
10 6 6 6 6 6 6 6 6 10 13 10 13 10 10 6 10 10 3 6 6 0 13 6 6 13 10 10 13 13 10 19 0 0 0 0 0 0 0 0 0 0 0
6 6 6 6 6 6 6 6 10 10 10 10 10 10 6 3 3 6 0 6 3 10 10 3 3 6 6 13 16 10 13 16 13 0 0 0 0 0 0 0 0 0 0
6 6 6 6 6 6 3 3 6 6 10 10 10 6 6 3 0 0 0 3 3 6 10 6 3 0 0 6 3 0 0 10 6 3 6 3 0 0 0 0 0 0 0
6 6 6 6 6 3 3 3 3 3 6 10 6 3 0 0 0 0 0 0 0 6 6 3 0 3 3 3 6 3 0 0 3 6 6 3 6 6 13 3 0 0 0
6 10 6 6 6 3 0 0 3 6 6 10 3 6 0 0 0 0 0 0 0 0 0 3 3 3 3 0 0 3 6 6 3 6 10 6 10 10 10 0 0 0 0
6 10 6 6 6 3 0 0 0 3 3 3 3 0 3 3 0 0 0 0 0 0 0 0 3 0 0 0 0 0 3 13 13 13 6 6 10 13 0 6 0 0 0
10 13 10 3 3 0 0 0 0 3 3 3 0 0 0 0 0 0 0 0 0 0 0 0 0 0 0 0 0 3 3 3 3 6 13 3 6 13 13 10 3 0 0
10 6 3 3 3 3 0 0 0 0 0 0 0 0 0 0 0 0 0 0 0 0 0 0 0 0 0 0 0 0 0 0 0 0 3 6 6 10 6 6 3 6 0

GEFSMA_con_cape1000_276.txt.gz
Probability
42 35 42 52 39 35 35 35 29 29 32 26 23 23 23 19 16 16 16 45 39 35 42 45 48 45 52 65 61 55 52 48 42 42 39 29 32 39 39 32 32 19 23
58 48 58 58 45 42 35 35 29 29 29 32 29 32 26 26 19 26 19 29 45 35 42 42 42 45 45 55 58 55 58 52 42 29 32 29 29 32 39 39 35 29 19
52 58 55 65 61 42 42 39 32 26 26 26 29 29 32 32 29 32 26 32 23 35 42 42 39 42 39 32 45 45 52 42 39 32 26 26 26 26 29 32 26 26 16
58 61 65 61 58 48 48 52 39 35 29 26 26 23 32 42 32 32 32 29 29 23 26 42 42 42 39 29 32 32 42 39 35 32 26 26 26 26 26 29 26 19 16
48 55 65 65 58 55 52 26 35 42 35 35 35 29 29 32 32 23 35 29 32 29 26 26 45 42 39 35 35 32 35 35 39 32 32 32 32 26 26 19 19 16 13
45 52 55 52 55 52 45 48 45 42 39 39 26 26 29 29 39 26 26 26 29 26 26 19 16 23 32 32 35 32 26 29 35 35 35 35 32 32 19 16 19 19 19
45 61 45 52 55 55 52 45 42 39 39 42 29 26 29 39 32 39 39 29 19 19 23 26 23 19 19 16 32 32 32 32 26 32 29 35 26 23 19 16 16 16 16
45 45 52 48 42 52 48 45 42 39 39 32 32 19 19 32 32 13 29 26 16 16 10 13 23 19 16 13 13 23 29 23 26 26 26 29 29 23 16 19 16 13 13
45 45 55 48 52 55 55 52 48 42 45 45 42 32 10 13 10 26 23 26 32 23 16 13 13 13 13 16 13 6 13 13 23 19 19 26 26 19 13 19 16 16 13
45 39 45 52 55 52 58 55 52 55 45 42 45 32 39 29 10 6 19 19 23 23 23 10 10 16 13 13 13 10 6 6 10 13 16 19 16 16 16 16 19 19 19
48 45 48 48 48 52 52 52 52 52 55 48 42 35 26 35 26 13 6 6 10 16 13 16 16 13 16 19 10 10 3 0 3 3 6 6 13 13 10 16 19 19 19
48 45 42 52 55 52 55 52 48 48 55 45 39 42 35 23 19 16 13 3 3 6 13 10 10 19 13 13 16 10 0 0 0 0 3 3 6 10 13 13 13 16 16
48 48 39 55 55 48 48 48 55 52 52 45 39 42 35 23 26 23 16 13 10 3 6 10 10 13 13 13 13 10 0 0 0 0 0 0 0 3 3 10 10 10 13
45 45 42 52 55 52 42 48 48 48 55 52 32 39 39 35 29 26 16 3 3 3 0 0 10 13 13 16 16 0 0 0 0 0 0 0 0 0 3 3 0 0 3
35 39 35 42 45 45 42 42 42 45 45 42 39 35 35 29 32 29 26 16 10 0 0 3 10 16 13 19 3 0 10 0 0 0 0 0 0 0 0 0 0 0 0
32 35 32 35 35 35 39 35 35 35 35 32 39 39 35 29 26 29 26 23 19 6 3 6 10 10 6 6 3 10 10 0 0 0 0 0 0 0 0 0 0 0 0
32 32 32 29 29 32 35 35 35 35 29 26 29 29 32 29 26 26 23 26 23 13 6 6 6 10 10 6 3 6 16 6 0 0 0 0 0 0 0 0 0 0 0
35 26 23 29 29 23 32 29 23 13 16 19 19 23 16 19 26 26 23 23 19 16 6 6 6 6 3 6 3 6 10 3 10 0 0 0 0 0 0 0 0 0 0
32 29 29 32 29 29 29 26 16 16 13 10 10 16 16 19 23 16 19 16 16 10 10 10 3 3 3 6 6 6 3 3 3 0 0 0 0 0 0 0 0 0 0
29 26 26 26 26 29 19 16 13 16 16 13 16 16 16 16 13 10 13 13 10 10 13 13 3 0 0 0 0 0 0 0 3 0 0 0 0 0 0 0 0 0 0
23 23 26 32 26 19 10 13 6 3 16 13 16 13 13 6 3 3 0 6 6 6 6 3 0 0 0 0 0 0 0 0 0 0 0 0 0 0 0 0 0 0 0
26 19 23 26 26 6 3 3 3 6 19 19 16 13 10 3 0 0 0 0 0 0 0 3 0 0 0 0 0 0 0 0 0 0 0 0 0 0 0 0 0 0 0
26 26 16 19 19 10 3 0 3 6 6 19 23 19 6 0 0 3 0 0 0 0 0 0 0 0 0 0 0 0 0 0 0 0 0 0 0 0 0 0 0 0 0
23 23 19 19 19 6 3 0 0 6 6 13 16 13 16 10 0 0 0 0 6 0 0 0 0 0 0 0 0 0 0 0 0 0 0 0 0 0 0 0 0 0 0
23 16 19 23 19 3 0 0 0 3 6 3 6 6 6 6 0 0 0 0 0 3 0 0 0 0 0 0 0 0 0 0 0 0 0 0 0 0 0 0 0 0 0
32 19 16 23 29 19 3 0 0 3 3 10 6 3 0 0 0 0 0 0 0 0 0 0 0 0 0 0 0 0 0 0 0 0 0 0 0 0 0 0 0 0 0

GEFSMA_con_cape1000_282.txt.gz
Probability
10 13 10 10 10 10 10 10 10 3 3 3 3 3 3 3 3 3 3 35 52 58 58 52 52 52 55 55 55 58 58 45 45 45 45 35 39 35 39 35 26 16 19
16 13 13 10 10 6 6 10 10 6 3 6 6 3 0 0 3 3 6 19 48 52 55 61 58 52 45 48 52 58 55 52 42 48 42 32 32 32 32 32 26 19 19
13 16 13 10 10 6 6 6 6 10 10 6 3 3 0 0 3 6 6 6 13 42 45 48 52 55 48 48 52 52 48 45 45 35 29 32 29 29 29 32 32 23 19
19 16 10 10 6 6 6 6 6 6 10 3 0 3 3 3 3 3 6 6 6 10 19 32 42 55 55 48 48 45 39 39 42 32 26 23 26 23 19 19 29 19 16
23 10 10 13 10 10 6 6 6 6 6 3 0 3 3 3 3 3 6 6 6 6 10 13 35 45 45 52 42 42 39 39 32 29 26 23 26 19 19 16 19 16 16
26 16 10 6 10 13 6 3 3 3 6 0 3 3 3 3 3 3 3 3 3 3 6 10 13 23 39 45 48 45 35 32 32 35 29 29 19 13 13 13 16 16 13
26 16 16 13 10 13 6 6 3 3 0 0 3 3 3 3 3 3 3 3 3 3 3 3 6 6 13 32 42 45 42 35 35 32 35 35 23 13 10 16 13 13 13
26 19 16 16 10 10 6 3 3 3 3 0 0 3 3 3 3 3 3 0 0 0 0 0 0 3 0 3 13 32 35 35 35 32 39 32 26 16 10 13 6 6 10
26 23 16 16 16 6 6 6 3 3 3 0 0 3 3 3 3 0 0 0 0 0 0 0 0 0 0 0 0 10 19 16 26 32 26 19 19 13 13 6 6 6 10
29 23 23 16 13 10 6 6 6 6 6 3 3 3 0 0 0 0 0 0 0 0 0 3 0 0 0 0 0 0 3 3 6 23 23 13 10 10 13 10 10 6 6
23 23 23 19 13 10 10 13 6 6 6 6 6 3 3 0 0 0 0 0 0 0 0 0 0 0 0 0 0 0 0 0 3 3 10 6 6 10 10 6 6 10 10
19 19 19 19 13 13 10 13 13 6 6 6 6 3 3 0 0 0 0 0 0 0 0 0 0 0 0 0 0 0 0 0 0 0 3 3 3 6 10 10 10 6 6
19 19 19 16 16 16 16 10 10 10 6 6 3 3 3 3 0 0 0 3 3 3 0 0 0 0 0 0 0 0 0 0 0 0 0 0 3 3 3 6 6 6 10
19 19 19 10 10 16 16 16 13 13 6 6 6 3 3 3 0 0 0 0 0 0 0 0 0 0 0 0 0 0 0 0 0 0 0 0 0 0 3 3 6 3 3
16 16 16 10 10 13 10 10 10 10 6 6 6 6 6 3 0 0 0 0 0 0 0 0 0 0 0 0 0 0 0 0 0 0 0 0 0 0 0 0 0 0 0
13 16 16 13 6 10 10 10 10 10 6 6 6 6 6 6 3 0 0 0 0 0 0 0 0 0 0 0 0 0 0 0 0 0 0 0 0 0 0 0 0 0 0
13 13 13 16 13 13 10 10 10 10 6 6 6 6 6 3 3 3 3 0 0 0 0 0 0 0 0 0 0 0 0 0 0 0 0 0 0 0 0 0 0 0 0
3 6 6 10 13 13 10 6 6 10 6 6 0 0 0 0 0 0 0 3 3 0 0 0 0 0 0 0 0 0 0 0 3 0 0 0 0 0 0 0 0 0 0
3 6 3 3 13 10 6 6 3 3 0 0 0 0 0 0 0 0 0 0 0 0 0 0 0 0 0 0 0 0 0 0 0 0 0 0 0 0 0 0 0 0 0
3 6 6 6 6 3 6 3 3 3 3 3 0 0 0 0 0 0 0 0 0 0 0 0 0 0 0 0 0 0 0 0 0 0 0 0 0 0 0 0 0 0 0
6 3 6 6 3 3 3 3 3 3 3 3 3 0 0 0 0 0 0 0 0 0 0 0 0 0 0 0 0 0 0 0 0 0 0 0 0 0 0 0 0 0 0
6 6 6 6 6 6 3 0 3 3 3 3 3 3 0 0 0 0 0 0 0 0 0 0 0 0 0 0 0 0 0 0 0 0 0 0 0 0 0 0 0 0 0
6 6 6 6 6 3 3 0 0 3 3 3 3 3 3 0 0 0 0 0 0 0 0 0 0 0 0 0 0 0 0 0 0 0 0 0 0 0 0 0 0 0 0
6 6 6 6 6 6 0 0 0 0 3 3 3 3 3 0 0 0 0 0 0 0 0 0 0 0 0 0 0 0 0 0 0 0 0 0 0 0 0 0 0 0 0
6 6 6 6 6 6 3 0 0 0 3 3 3 3 0 0 0 0 0 0 0 0 0 0 0 0 0 0 0 0 0 0 0 0 0 0 0 0 0 0 0 0 0
6 6 6 6 6 3 3 0 0 0 0 0 3 3 0 0 0 0 0 0 0 0 0 0 0 0 0 0 0 0 0 0 0 0 0 0 0 0 0 0 0 0 0

GEFSMA_con_cape1000_288.txt.gz
Probability
6 3 3 6 10 10 10 13 13 10 3 3 3 10 13 6 10 10 6 16 35 39 45 42 39 48 42 39 45 42 39 42 35 39 39 35 35 39 42 42 29 26 23
3 3 3 3 6 6 6 10 10 6 3 3 3 10 10 10 10 10 10 6 26 35 39 39 32 39 39 39 52 48 42 39 39 35 32 32 32 35 32 32 29 26 23
3 3 3 6 6 6 3 3 6 6 3 3 6 6 3 3 3 6 6 3 10 29 39 48 48 45 39 42 45 45 45 48 45 35 29 29 32 39 35 32 29 23 19
10 6 3 6 6 6 6 6 6 6 6 6 6 3 6 3 3 3 6 10 6 13 29 32 48 52 42 35 39 42 45 45 42 32 32 32 26 29 29 23 23 19 13
13 10 6 13 10 10 6 6 6 6 6 6 6 3 3 3 3 3 3 3 6 10 13 23 35 39 35 39 32 35 42 42 45 39 26 29 29 23 16 16 19 23 16
16 10 10 6 10 10 6 6 6 3 3 3 3 6 3 3 3 3 3 3 3 3 6 10 16 19 32 32 32 32 32 35 32 32 29 26 26 16 10 10 16 19 16
19 10 13 6 6 6 6 6 3 3 3 3 6 3 3 3 3 3 3 3 3 3 3 3 6 10 13 23 26 32 32 26 26 29 32 35 29 16 10 10 10 16 10
10 16 10 10 6 6 6 3 3 3 3 3 3 3 3 3 3 3 3 3 3 3 3 3 3 3 3 6 3 16 29 26 26 26 29 32 26 26 10 10 13 13 6
10 13 10 6 6 6 6 6 3 3 6 3 3 3 3 3 3 3 3 3 3 3 3 3 3 3 3 3 3 3 19 16 23 26 32 32 23 23 16 10 10 10 10
13 13 10 10 6 6 6 6 6 3 3 3 3 3 3 3 3 3 3 3 3 3 3 3 3 3 3 6 3 3 0 0 6 19 29 29 19 16 16 13 13 10 10
19 16 10 10 6 6 6 6 6 6 6 6 6 3 3 3 3 3 3 0 3 3 3 3 6 3 3 3 3 0 0 0 0 3 6 6 6 10 13 13 13 13 16
16 16 16 10 6 6 6 6 6 6 6 6 6 6 3 3 3 3 3 3 0 3 3 3 3 3 6 6 0 0 0 0 0 0 0 0 0 3 10 10 6 10 13
16 16 19 10 6 6 6 6 6 6 3 3 3 3 3 3 3 3 3 3 3 0 0 0 3 3 0 0 3 0 0 0 0 0 0 0 0 0 0 3 3 6 13
16 16 16 16 10 6 3 3 3 3 3 3 3 3 3 3 3 3 3 3 3 0 0 0 0 0 0 0 0 0 0 0 0 0 0 0 0 0 0 0 0 0 0
10 16 16 16 13 13 13 10 6 3 6 6 6 3 3 3 3 3 3 3 3 3 0 0 0 0 0 0 0 0 0 0 0 0 0 0 0 0 0 0 0 0 0
6 10 13 10 10 10 10 10 10 6 6 6 6 6 6 6 3 3 3 3 3 3 3 0 0 0 0 0 0 0 0 0 0 0 0 0 0 0 0 0 0 0 0
3 3 3 10 10 10 6 6 10 6 6 6 6 6 6 6 6 6 3 3 3 3 3 6 3 0 0 0 0 0 0 0 3 0 0 0 0 0 0 0 0 0 0
0 0 0 0 3 3 6 6 10 10 6 6 6 6 6 6 6 6 6 6 3 3 0 3 0 0 0 0 0 0 0 0 0 0 0 0 0 0 0 0 0 0 0
0 0 0 0 0 0 0 0 0 3 3 6 3 3 3 3 3 3 3 3 3 3 0 0 0 0 0 0 0 0 0 0 0 0 0 0 0 0 0 0 0 0 0
0 0 0 0 0 0 0 0 0 0 3 3 0 3 3 3 3 3 3 3 3 0 0 0 0 0 0 0 0 0 0 0 0 0 0 0 0 0 0 0 0 0 0
0 0 0 0 0 0 0 0 0 0 0 0 0 0 3 3 0 0 0 0 0 0 0 0 0 0 0 0 0 0 0 0 0 0 0 0 0 0 0 0 0 0 0
0 0 0 0 0 0 0 0 0 0 0 0 0 0 0 0 0 0 0 0 0 0 0 0 0 0 0 0 0 0 0 0 0 0 0 0 0 0 0 0 0 0 0
0 0 3 3 0 0 0 0 0 0 0 0 0 0 0 0 0 0 0 0 0 0 0 0 0 0 0 0 0 0 0 0 0 0 0 0 0 0 0 0 0 0 0
0 0 3 0 3 0 0 0 0 0 0 3 3 3 3 3 0 0 0 0 0 0 0 0 0 0 0 0 0 0 0 0 0 0 0 0 0 0 0 0 0 0 0
3 0 0 3 3 0 0 0 0 0 0 0 3 3 3 3 0 0 0 0 0 0 0 0 0 0 0 0 0 0 0 0 0 0 0 0 0 0 0 0 0 0 0
6 3 6 6 3 0 0 0 0 0 0 0 0 3 0 0 0 0 0 0 0 0 0 0 0 0 0 0 0 0 0 0 0 0 0 0 0 0 0 0 0 0 0